FW6434 Weather Reports


time (UTC)temp
C
wind
direction
speed
KPH
gust
KPH
rain 1hr
cm
rain 24hr
cm
rain mn
cm
humidity
%
barometer
mb
20260831085314 24 204 0.0 3.2 0.00 0.00 0.00 70 1013.6
20260831085257 24 192 0.0 3.2 0.00 0.00 0.00 70 1013.8
20260831084716 24 202 0.0 0.0 0.00 0.00 0.00 70 1013.9
20260831084252 23 189 0.0 6.4 0.00 0.00 0.00 70 1013.8
20260831084245 23 190 0.0 6.4 0.00 0.00 0.00 70 1013.7
20260831084231 23 191 0.0 6.4 0.00 0.00 0.00 70 1013.7
20260831083912 24 161 1.6 4.8 0.00 0.00 0.00 69 1013.8
20260831083811 24 170 1.6 4.8 0.00 0.00 0.00 69 1013.6
20260831083719 24 194 3.2 4.8 0.00 0.00 0.00 68 1013.6
20260831083711 24 199 4.8 4.8 0.00 0.00 0.00 68 1013.7
20260831083612 24 185 1.6 6.4 0.00 0.00 0.00 69 1013.7
20260831083511 24 198 0.0 6.4 0.00 0.00 0.00 69 1013.8
20260831083411 24 190 3.2 6.4 0.00 0.00 0.00 68 1013.7
20260831083311 24 191 1.6 6.4 0.00 0.00 0.00 68 1013.9
20260831083219 24 161 3.2 6.4 0.00 0.00 0.00 68 1013.9
20260831083210 24 161 3.2 6.4 0.00 0.00 0.00 68 1013.7
20260831083148 24 183 1.6 9.7 0.00 0.00 0.00 68 1013.7
20260831083131 24 189 0.0 9.7 0.00 0.00 0.00 68 1013.7
20260831082855 24 196 0.0 12.9 0.00 0.00 0.00 67 1013.9
20260831082837 24 233 6.4 12.9 0.00 0.00 0.00 67 1013.9
20260831082830 24 207 1.6 12.9 0.00 0.00 0.00 67 1014.0
20260831082511 24 204 0.0 12.9 0.00 0.00 0.00 67 1013.7
20260831082411 24 174 3.2 12.9 0.00 0.00 0.00 66 1013.7
20260831082312 25 181 3.2 12.9 0.00 0.00 0.00 66 1013.8
20260831082258 24 187 1.6 4.8 0.00 0.00 0.00 67 1013.7
20260831082247 25 217 4.8 12.9 0.00 0.00 0.00 66 1013.8
20260831082241 25 246 1.6 12.9 0.00 0.00 0.00 66 1013.7
20260831082226 25 212 4.8 12.9 0.00 0.00 0.00 67 1013.8
20260831082209 25 223 0.0 12.9 0.00 0.00 0.00 66 1013.7
20260831082153 25 209 3.2 12.9 0.00 0.00 0.00 66 1013.6
20260831081916 24 199 0.0 4.8 0.00 0.00 0.00 68 1013.7
20260831081909 24 198 0.0 4.8 0.00 0.00 0.00 67 1013.7
20260831081853 24 197 1.6 4.8 0.00 0.00 0.00 67 1013.9
20260831081837 24 202 4.8 4.8 0.00 0.00 0.00 66 1013.7
20260831081822 24 162 0.0 4.8 0.00 0.00 0.00 67 1013.5
20260831081805 24 122 3.2 4.8 0.00 0.00 0.00 66 1013.7
20260831081019 24 182 0.0 4.8 0.00 0.00 0.00 68 1013.9
20260831081013 24 191 0.0 4.8 0.00 0.00 0.00 68 1013.7
20260831080957 24 203 3.2 4.8 0.00 0.00 0.00 68 1013.8
20260831080941 24 204 1.6 4.8 0.00 0.00 0.00 68 1013.9
20260831080711 24 185 0.0 4.8 0.00 0.00 0.00 68 1013.7
20260831080612 24 189 0.0 4.8 0.00 0.00 0.00 69 1013.6
20260831080601 23 200 1.6 4.8 0.00 0.00 0.00 68 1013.7
20260831080557 24 190 1.6 3.2 0.00 0.00 0.00 71 1013.8
20260831080548 23 194 0.0 4.8 0.00 0.00 0.00 69 1013.6
20260831080533 23 190 0.0 4.8 0.00 0.00 0.00 69 1013.5
20260831080517 23 203 1.6 4.8 0.00 0.00 0.00 69 1013.7
20260831080249 23 196 0.0 4.8 0.00 0.00 0.00 68 1013.7
20260831080233 23 199 1.6 4.8 0.00 0.00 0.00 68 1013.8
20260831080216 23 195 0.0 4.8 0.00 0.00 0.00 69 1013.9
20260831080159 23 191 1.6 4.8 0.00 0.00 0.00 68 1013.8
20260831080144 24 187 1.6 3.2 0.00 0.00 0.00 69 1013.8
20260831075647 24 201 0.0 3.2 0.00 0.00 0.00 70 1013.9
20260831075631 24 206 3.2 3.2 0.00 0.00 0.00 70 1013.8
20260831075311 23 165 0.0 3.2 0.00 0.00 0.00 70 1013.7
20260831075220 23 199 0.0 3.2 0.00 0.00 0.00 70 1013.7
20260831075211 23 199 0.0 3.2 0.00 0.00 0.00 70 1013.8
20260831075111 23 192 0.0 3.2 0.00 0.00 0.00 70 1013.9
20260831075012 23 196 0.0 3.2 0.00 0.00 0.00 70 1013.8
20260831074910 23 165 0.0 3.2 0.00 0.00 0.00 71 1013.9
20260831074811 23 194 0.0 3.2 0.00 0.00 0.00 71 1013.9
20260831074731 23 185 0.0 3.2 0.00 0.00 0.00 71 1013.9
20260831074711 23 162 1.6 3.2 0.00 0.00 0.00 71 1013.7
20260831074611 23 188 0.0 3.2 0.00 0.00 0.00 72 1013.8
20260831074547 23 208 1.6 3.2 0.00 0.00 0.00 71 1013.8
20260831074531 23 168 0.0 3.2 0.00 0.00 0.00 72 1014.0
20260831074220 23 157 0.0 3.2 0.00 0.00 0.00 71 1013.9
20260831074211 23 200 0.0 3.2 0.00 0.00 0.00 71 1014.1
20260831074147 23 197 0.0 3.2 0.00 0.00 0.00 71 1014.1
20260831074131 23 189 1.6 3.2 0.00 0.00 0.00 71 1014.0
20260831073811 23 201 0.0 1.6 0.00 0.00 0.00 74 1013.9
20260831073719 23 200 0.0 1.6 0.00 0.00 0.00 74 1013.9
20260831073712 23 198 0.0 1.6 0.00 0.00 0.00 74 1013.8
20260831073611 23 268 0.0 1.6 0.00 0.00 0.00 74 1014.0
20260831073512 22 191 0.0 1.6 0.00 0.00 0.00 74 1014.2
20260831073411 22 186 0.0 1.6 0.00 0.00 0.00 74 1014.1
20260831073311 22 190 0.0 1.6 0.00 0.00 0.00 74 1014.0
20260831073219 22 187 0.0 1.6 0.00 0.00 0.00 75 1014.0
20260831073210 22 187 0.0 1.6 0.00 0.00 0.00 75 1013.9
20260831073112 22 160 0.0 1.6 0.00 0.00 0.00 75 1014.0
20260831073048 22 178 0.0 1.6 0.00 0.00 0.00 75 1013.8
20260831073032 22 184 0.0 1.6 0.00 0.00 0.00 76 1014.1
20260831072719 22 164 0.0 1.6 0.00 0.00 0.00 75 1014.2
20260831072712 22 173 0.0 1.6 0.00 0.00 0.00 75 1014.1
20260831072611 22 172 0.0 1.6 0.00 0.00 0.00 75 1014.1
20260831072547 22 170 0.0 1.6 0.00 0.00 0.00 75 1013.9
20260831072531 22 123 1.6 1.6 0.00 0.00 0.00 75 1014.0
20260831072219 22 183 0.0 1.6 0.00 0.00 0.00 76 1013.8
20260831072211 22 184 0.0 1.6 0.00 0.00 0.00 75 1014.0
20260831072110 22 144 0.0 1.6 0.00 0.00 0.00 76 1014.0
20260831072047 22 174 0.0 1.6 0.00 0.00 0.00 76 1014.0
20260831072031 22 156 1.6 1.6 0.00 0.00 0.00 76 1014.0
20260831071719 22 152 0.0 1.6 0.00 0.00 0.00 77 1014.1
20260831071712 22 138 0.0 1.6 0.00 0.00 0.00 77 1013.8
20260831071612 22 191 0.0 1.6 0.00 0.00 0.00 77 1014.1
20260831071511 22 196 0.0 1.6 0.00 0.00 0.00 78 1013.9
20260831071417 21 199 0.0 1.6 0.00 0.00 0.00 79 1014.0
20260831071400 21 197 0.0 1.6 0.00 0.00 0.00 79 1014.1
20260831071344 21 170 0.0 1.6 0.00 0.00 0.00 79 1014.1
20260831071337 21 170 0.0 1.6 0.00 0.00 0.00 79 1014.2
20260831071011 21 183 0.0 1.6 0.00 0.00 0.00 80 1014.1
20260831070911 21 170 1.6 1.6 0.00 0.00 0.00 81 1013.9
20260831070812 21 197 0.0 1.6 0.00 0.00 0.00 81 1014.0
20260831070753 21 180 0.0 1.6 0.00 0.00 0.00 81 1014.0
20260831070746 21 183 0.0 1.6 0.00 0.00 0.00 81 1014.0
20260831070731 20 189 0.0 1.6 0.00 0.00 0.00 82 1014.2
20260831070411 20 191 0.0 1.6 0.00 0.00 0.00 83 1014.0
20260831070311 20 189 0.0 1.6 0.00 0.00 0.00 83 1014.1
20260831070254 20 188 0.0 1.6 0.00 0.00 0.00 83 1014.1
20260831070247 20 189 0.0 1.6 0.00 0.00 0.00 82 1014.1
20260831070231 20 183 0.0 1.6 0.00 0.00 0.00 83 1014.1
20260831065911 20 177 0.0 1.6 0.00 0.00 0.00 83 1014.0
20260831065811 20 181 0.0 0.0 0.00 0.00 0.00 83 1014.0
20260831065719 20 175 0.0 0.0 0.00 0.00 0.00 83 1014.0
20260831065710 20 162 0.0 0.0 0.00 0.00 0.00 83 1013.9
20260831065611 20 168 0.0 0.0 0.00 0.00 0.00 84 1014.0
20260831065548 20 178 0.0 0.0 0.00 0.00 0.00 85 1014.2
20260831065532 20 167 0.0 0.0 0.00 0.00 0.00 84 1014.0
20260831065219 20 157 0.0 0.0 0.00 0.00 0.00 85 1014.0
20260831065211 20 157 0.0 0.0 0.00 0.00 0.00 85 1013.9
20260831065146 20 183 0.0 0.0 0.00 0.00 0.00 85 1014.0
20260831065130 20 168 0.0 0.0 0.00 0.00 0.00 85 1013.9
20260831065115 20 177 0.0 0.0 0.00 0.00 0.00 86 1014.1
20260831064850 20 181 0.0 0.0 0.00 0.00 0.00 86 1014.1
20260831064833 20 169 0.0 0.0 0.00 0.00 0.00 86 1014.0
20260831064826 20 122 0.0 0.0 0.00 0.00 0.00 86 1014.1
20260831064811 20 161 0.0 0.0 0.00 0.00 0.00 86 1014.1
20260831064547 20 174 0.0 0.0 0.00 0.00 0.00 86 1014.3
20260831064530 19 180 0.0 0.0 0.00 0.00 0.00 87 1014.1
20260831064515 19 183 0.0 0.0 0.00 0.00 0.00 87 1014.2
20260831064248 19 181 0.0 0.0 0.00 0.00 0.00 87 1014.0
20260831064232 19 176 0.0 0.0 0.00 0.00 0.00 87 1014.2
20260831064217 19 183 0.0 0.0 0.00 0.00 0.00 87 1014.2
20260831063941 19 160 0.0 0.0 0.00 0.00 0.00 88 1014.1
20260831063923 19 165 0.0 0.0 0.00 0.00 0.00 88 1014.1
20260831063611 19 187 0.0 0.0 0.00 0.00 0.00 88 1014.0
20260831063511 19 185 0.0 0.0 0.00 0.00 0.00 88 1014.2
20260831063411 19 165 0.0 0.0 0.00 0.00 0.00 88 1014.2
20260831063312 19 186 0.0 0.0 0.00 0.00 0.00 88 1014.3
20260831063219 19 186 0.0 0.0 0.00 0.00 0.00 88 1014.3
20260831063210 19 186 0.0 0.0 0.00 0.00 0.00 88 1014.2
20260831063112 19 164 0.0 0.0 0.00 0.00 0.00 88 1014.1
20260831063012 19 171 0.0 0.0 0.00 0.00 0.00 89 1014.2
20260831062912 19 177 0.0 0.0 0.00 0.00 0.00 89 1014.2
20260831062811 19 181 0.0 0.0 0.00 0.00 0.00 89 1014.2
20260831062719 19 182 0.0 0.0 0.00 0.00 0.00 89 1014.2
20260831062712 19 181 0.0 0.0 0.00 0.00 0.00 89 1014.2
20260831062648 19 162 0.0 0.0 0.00 0.00 0.00 89 1014.1
20260831062631 19 188 0.0 0.0 0.00 0.00 0.00 89 1013.9
20260831062311 19 189 0.0 0.0 0.00 0.00 0.00 89 1014.2
20260831062219 19 176 0.0 0.0 0.00 0.00 0.00 89 1014.2
20260831062211 19 175 0.0 0.0 0.00 0.00 0.00 89 1014.2
20260831062111 19 185 0.0 0.0 0.00 0.00 0.00 89 1014.1
20260831062011 19 187 0.0 0.0 0.00 0.00 0.00 89 1014.1
20260831061911 18 188 0.0 0.0 0.00 0.00 0.00 89 1014.2
20260831061856 18 167 0.0 0.0 0.00 0.00 0.00 89 1014.0
20260831061838 18 142 0.0 0.0 0.00 0.00 0.00 89 1014.0
20260831061832 18 193 0.0 0.0 0.00 0.00 0.00 89 1014.0
20260831061549 18 194 0.0 0.0 0.00 0.00 0.00 91 1014.2
20260831061541 18 157 0.0 0.0 0.00 0.00 0.00 89 1014.2
20260831061525 18 141 0.0 0.0 0.00 0.00 0.00 90 1014.3
20260831061509 18 181 0.0 0.0 0.00 0.00 0.00 91 1014.2
20260831061242 18 194 0.0 0.0 0.00 0.00 0.00 91 1014.3
20260831061226 18 162 0.0 0.0 0.00 0.00 0.00 91 1014.2
20260831061210 18 168 0.0 0.0 0.00 0.00 0.00 91 1014.2
20260831061154 18 174 0.0 0.0 0.00 0.00 0.00 91 1014.1
20260831060914 18 169 0.0 0.0 0.00 0.00 0.00 92 1014.2
20260831060908 18 164 0.0 0.0 0.00 0.00 0.00 92 1014.2
20260831060632 18 164 0.0 0.0 0.00 0.00 0.00 93 1014.1
20260831060312 18 165 0.0 0.0 0.00 0.00 0.00 94 1014.2
20260831060219 18 178 0.0 0.0 0.00 0.00 0.00 94 1014.2
20260831060211 18 178 0.0 0.0 0.00 0.00 0.00 94 1014.3
20260831060110 17 182 0.0 0.0 0.00 0.00 0.00 94 1014.3
20260831060046 17 180 0.0 0.0 0.00 0.00 0.00 95 1014.5
20260831060031 17 185 0.0 0.0 0.00 0.00 0.00 95 1014.5
20260831055719 17 185 0.0 0.0 0.00 0.00 0.00 95 1014.2
20260831055712 17 184 0.0 0.0 0.00 0.00 0.00 95 1014.3
20260831055612 17 184 0.0 0.0 0.00 0.00 0.00 95 1014.3
20260831055511 17 184 0.0 0.0 0.00 0.00 0.00 95 1014.3
20260831055412 17 184 0.0 0.0 0.00 0.00 0.00 95 1014.5
20260831055347 17 184 0.0 0.0 0.00 0.00 0.00 96 1014.3
20260831055332 17 184 0.0 0.0 0.00 0.00 0.00 96 1014.3
20260831055325 17 184 0.0 0.0 0.00 0.00 0.00 96 1014.5
20260831055310 17 184 0.0 0.0 0.00 0.00 0.00 96 1014.6
20260831055033 17 183 0.0 0.0 0.00 0.00 0.00 96 1014.2
20260831055018 17 183 0.0 0.0 0.00 0.00 0.00 96 1014.3
20260831055000 17 184 0.0 0.0 0.00 0.00 0.00 96 1014.3
20260831054732 17 184 0.0 0.0 0.00 0.00 0.00 97 1014.3
20260831054411 17 186 0.0 0.0 0.00 0.00 0.00 97 1014.2
20260831054312 17 186 0.0 0.0 0.00 0.00 0.00 97 1014.5
20260831054254 16 187 0.0 0.0 0.00 0.00 0.00 97 1014.5
20260831054247 16 187 0.0 0.0 0.00 0.00 0.00 97 1014.3
20260831054232 16 187 0.0 0.0 0.00 0.00 0.00 97 1014.5
20260831054216 16 188 0.0 0.0 0.00 0.00 0.00 97 1014.5
20260831053940 16 188 0.0 0.0 0.00 0.00 0.00 97 1014.2
20260831053923 16 188 0.0 0.0 0.00 0.00 0.00 97 1014.2
20260831053611 16 188 0.0 0.0 0.00 0.00 0.00 97 1014.5
20260831053554 16 188 0.0 0.0 0.00 0.00 0.00 97 1014.3
20260831053544 16 188 0.0 0.0 0.00 0.00 0.00 97 1014.5
20260831053528 16 188 0.0 0.0 0.00 0.00 0.00 97 1014.1
20260831053513 16 188 0.0 0.0 0.00 0.00 0.00 97 1014.3
20260831053247 16 188 0.0 0.0 0.00 0.00 0.00 97 1014.3
20260831053231 16 187 0.0 0.0 0.00 0.00 0.00 97 1014.3
20260831052911 16 188 0.0 0.0 0.00 0.00 0.00 97 1014.3
20260831052811 16 188 0.0 0.0 0.00 0.00 0.00 97 1014.3
20260831052720 16 189 0.0 0.0 0.00 0.00 0.00 97 1014.3
20260831052711 16 189 0.0 0.0 0.00 0.00 0.00 97 1014.2
20260831052611 16 189 0.0 0.0 0.00 0.00 0.00 97 1014.5
20260831052548 16 189 0.0 0.0 0.00 0.00 0.00 97 1014.3
20260831052531 16 189 0.0 0.0 0.00 0.00 0.00 97 1014.5
20260831052219 16 189 0.0 0.0 0.00 0.00 0.00 97 1014.5
20260831052211 16 189 0.0 0.0 0.00 0.00 0.00 97 1014.5
20260831052146 16 189 0.0 0.0 0.00 0.00 0.00 97 1014.3
20260831052131 16 189 0.0 0.0 0.00 0.00 0.00 97 1014.5
20260831051811 16 189 0.0 0.0 0.00 0.00 0.00 97 1014.6
20260831051710 16 189 0.0 0.0 0.00 0.00 0.00 98 1014.6
20260831051612 16 189 0.0 0.0 0.00 0.00 0.00 98 1014.5
20260831051510 16 189 0.0 0.0 0.00 0.00 0.00 98 1014.3
20260831051411 16 188 0.0 0.0 0.00 0.00 0.00 98 1014.2
20260831051311 16 188 0.0 0.0 0.00 0.00 0.00 98 1014.2
20260831051220 16 188 0.0 0.0 0.00 0.00 0.00 98 1014.2
20260831051211 16 188 0.0 0.0 0.00 0.00 0.00 98 1014.5
20260831051112 16 187 0.0 0.0 0.00 0.00 0.00 98 1014.2
20260831051011 16 187 0.0 0.0 0.00 0.00 0.00 98 1014.2
20260831050915 16 186 0.0 0.0 0.00 0.00 0.00 98 1014.2
20260831050811 16 186 0.0 0.0 0.00 0.00 0.00 98 1014.1
20260831050711 16 186 0.0 0.0 0.00 0.00 0.00 98 1014.1
20260831050611 16 186 0.0 0.0 0.00 0.00 0.00 98 1014.2
20260831050511 16 186 0.0 0.0 0.00 0.00 0.00 98 1014.5
20260831050410 16 186 0.0 0.0 0.00 0.00 0.00 98 1014.3
20260831050312 16 188 0.0 0.0 0.00 0.00 0.00 98 1014.2
20260831050218 16 190 0.0 0.0 0.00 0.00 0.00 98 1014.2
20260831050212 16 189 0.0 0.0 0.00 0.00 0.00 98 1014.3
20260831050141 16 190 0.0 0.0 0.00 0.00 0.00 98 1014.2
20260831050127 16 190 0.0 0.0 0.00 0.00 0.00 98 1014.5
20260831045851 16 191 0.0 0.0 0.00 0.00 0.00 99 1014.3
20260831045833 16 191 0.0 0.0 0.00 0.00 0.00 99 1014.3
20260831045827 16 191 0.0 0.0 0.00 0.00 0.00 99 1014.1
20260831045555 16 192 0.0 0.0 0.00 0.00 0.00 100 1014.3
20260831045546 16 191 0.0 0.0 0.00 0.00 0.00 99 1014.3
20260831045532 16 191 0.0 0.0 0.00 0.00 0.00 99 1014.5
20260831045516 16 191 0.0 0.0 0.00 0.00 0.00 99 1014.2
20260831045500 16 191 0.0 0.0 0.00 0.00 0.00 99 1014.2
20260831045454 16 191 0.0 0.0 0.00 0.00 0.00 99 1014.5
20260831045009 16 191 0.0 0.0 0.00 0.00 0.00 100 1014.2
20260831044954 16 191 0.0 0.0 0.00 0.00 0.00 100 1014.5
20260831044937 16 192 0.0 0.0 0.00 0.00 0.00 100 1014.3
20260831044707 16 192 0.0 0.0 0.00 0.00 0.00 100 1014.3
20260831044645 15 192 0.0 0.0 0.00 0.00 0.00 100 1014.1
20260831044629 15 192 0.0 0.0 0.00 0.00 0.00 100 1014.5
20260831044353 15 192 0.0 0.0 0.00 0.00 0.00 100 1014.2
20260831044337 15 192 0.0 0.0 0.00 0.00 0.00 100 1014.3
20260831044330 15 192 0.0 0.0 0.00 0.00 0.00 100 1014.3
20260831044100 15 188 0.0 0.0 0.00 0.00 0.00 100 1014.2
20260831044049 15 190 0.0 0.0 0.00 0.00 0.00 100 1014.3
20260831044033 15 190 0.0 0.0 0.00 0.00 0.00 100 1014.2
20260831043809 15 191 0.0 0.0 0.00 0.00 0.00 100 1014.3
20260831043751 15 191 0.0 0.0 0.00 0.00 0.00 100 1014.3
20260831043744 15 190 0.0 0.0 0.00 0.00 0.00 100 1014.3
20260831043728 15 190 0.0 0.0 0.00 0.00 0.00 100 1014.2
20260831043451 15 189 0.0 0.0 0.00 0.00 0.00 100 1014.5
20260831043436 15 188 0.0 0.0 0.00 0.00 0.00 100 1014.2
20260831043208 15 188 0.0 0.0 0.00 0.00 0.00 100 1014.2
20260831043108 15 188 0.0 0.0 0.00 0.00 0.00 100 1014.1
20260831043006 15 186 0.0 0.0 0.00 0.00 0.00 100 1014.0
20260831042908 15 186 0.0 0.0 0.00 0.00 0.00 100 1014.1
20260831042852 15 185 0.0 0.0 0.00 0.00 0.00 100 1014.2
20260831042835 15 186 0.0 0.0 0.00 0.00 0.00 100 1014.2
20260831042828 15 186 0.0 0.0 0.00 0.00 0.00 100 1014.0
20260831042507 15 186 0.0 0.0 0.00 0.00 0.00 100 1014.1
20260831042407 15 185 0.0 0.0 0.00 0.00 0.00 100 1014.3
20260831042307 15 184 0.0 0.0 0.00 0.00 0.00 100 1014.1
20260831042228 15 186 0.0 0.0 0.00 0.00 0.00 100 1014.1
20260831042207 15 185 0.0 0.0 0.00 0.00 0.00 100 1014.3
20260831042108 15 180 0.0 0.0 0.00 0.00 0.00 100 1014.3
20260831042052 15 184 0.0 0.0 0.00 0.00 0.00 100 1014.3
20260831042037 15 181 0.0 0.0 0.00 0.00 0.00 100 1014.3
20260831042023 15 186 0.0 0.0 0.00 0.00 0.00 100 1013.8
20260831042005 14 186 0.0 0.0 0.00 0.00 0.00 100 1013.8
20260831041959 14 186 0.0 0.0 0.00 0.00 0.00 100 1014.5
20260831041943 14 188 0.0 0.0 0.00 0.00 0.00 100 1014.1
20260831041922 14 188 0.0 0.0 0.00 0.00 0.00 100 1014.2
20260831041647 14 190 0.0 0.0 0.00 0.00 0.00 100 1014.3
20260831041522 14 190 0.0 0.0 0.00 0.00 0.00 100 1014.3
20260831041506 14 190 0.0 0.0 0.00 0.00 0.00 100 1014.5
20260831041451 14 190 0.0 0.0 0.00 0.00 0.00 100 1014.3
20260831041216 14 190 0.0 0.0 0.00 0.00 0.00 100 1014.3
20260831041159 14 190 0.0 0.0 0.00 0.00 0.00 100 1014.3
20260831040455 15 190 0.0 0.0 0.00 0.00 0.00 100 1014.3
20260831040451 14 191 0.0 0.0 0.00 0.00 0.00 100 1014.1
20260831040441 14 191 0.0 0.0 0.00 0.00 0.00 100 1014.2
20260831040426 14 191 0.0 0.0 0.00 0.00 0.00 100 1014.5
20260831040411 14 191 0.0 0.0 0.00 0.00 0.00 100 1014.5
20260831040404 14 191 0.0 0.0 0.00 0.00 0.00 100 1014.6
20260831040348 14 190 0.0 0.0 0.00 0.00 0.00 100 1014.2
20260831040333 14 191 0.0 0.0 0.00 0.00 0.00 100 1014.6
20260831040317 14 191 0.0 0.0 0.00 0.00 0.00 100 1014.2
20260831040300 14 191 0.0 0.0 0.00 0.00 0.00 100 1014.1
20260831035550 15 190 0.0 0.0 0.00 0.00 0.00 100 1014.2
20260831035533 15 191 0.0 0.0 0.00 0.00 0.00 100 1014.2
20260831035256 15 191 0.0 0.0 0.00 0.00 0.00 100 1014.3
20260831035250 15 191 0.0 0.0 0.00 0.00 0.00 100 1014.2
20260831035234 15 191 0.0 0.0 0.00 0.00 0.00 100 1014.3
20260831035010 15 191 0.0 0.0 0.00 0.00 0.00 100 1014.3
20260831034954 15 191 0.0 0.0 0.00 0.00 0.00 100 1014.6
20260831034938 15 190 0.0 0.0 0.00 0.00 0.00 100 1014.3
20260831034707 15 190 0.0 0.0 0.00 0.00 0.00 100 1014.2
20260831034608 14 190 0.0 0.0 0.00 0.00 0.00 100 1014.6
20260831034507 14 190 0.0 0.0 0.00 0.00 0.00 100 1014.2
20260831034407 14 190 0.0 0.0 0.00 0.00 0.00 100 1014.2
20260831034307 14 190 0.0 0.0 0.00 0.00 0.00 100 1014.2
20260831034215 14 190 0.0 0.0 0.00 0.00 0.00 100 1014.2
20260831034207 14 190 0.0 0.0 0.00 0.00 0.00 100 1014.6
20260831034107 14 189 0.0 0.0 0.00 0.00 0.00 100 1014.5
20260831034008 14 190 0.0 0.0 0.00 0.00 0.00 100 1014.5
20260831033907 14 190 0.0 0.0 0.00 0.00 0.00 100 1014.5
20260831033807 14 190 0.0 0.0 0.00 0.00 0.00 100 1014.2
20260831033707 14 190 0.0 0.0 0.00 0.00 0.00 100 1014.2
20260831033608 14 190 0.0 0.0 0.00 0.00 0.00 100 1014.3
20260831033509 14 190 0.0 0.0 0.00 0.00 0.00 100 1014.3
20260831033408 14 190 0.0 0.0 0.00 0.00 0.00 100 1014.3
20260831033308 14 190 0.0 0.0 0.00 0.00 0.00 100 1014.1
20260831033251 14 189 0.0 0.0 0.00 0.00 0.00 100 1014.1
20260831033244 14 189 0.0 0.0 0.00 0.00 0.00 100 1014.5
20260831033228 14 189 0.0 0.0 0.00 0.00 0.00 100 1014.3
20260831032951 14 188 0.0 0.0 0.00 0.00 0.00 100 1014.3
20260831032936 14 187 0.0 0.0 0.00 0.00 0.00 100 1014.3
20260831032918 14 186 0.0 0.0 0.00 0.00 0.00 100 1014.3
20260831032606 14 186 0.0 0.0 0.00 0.00 0.00 100 1014.1
20260831032556 14 190 0.0 0.0 0.00 0.00 0.00 100 1014.2
20260831032546 14 185 0.0 0.0 0.00 0.00 0.00 100 1014.2
20260831032530 14 186 0.0 0.0 0.00 0.00 0.00 100 1014.1
20260831032515 14 187 0.0 0.0 0.00 0.00 0.00 100 1014.2
20260831032243 14 190 0.0 0.0 0.00 0.00 0.00 100 1014.3
20260831032228 14 190 0.0 0.0 0.00 0.00 0.00 100 1014.1
20260831031906 14 190 0.0 0.0 0.00 0.00 0.00 100 1014.5
20260831031844 14 190 0.0 0.0 0.00 0.00 0.00 100 1014.5
20260831031825 14 190 0.0 0.0 0.00 0.00 0.00 100 1014.5
20260831031819 14 190 0.0 0.0 0.00 0.00 0.00 100 1014.2
20260831031803 14 190 0.0 0.0 0.00 0.00 0.00 100 1014.5
20260831031527 15 190 0.0 0.0 0.00 0.00 0.00 100 1014.3
20260831031215 15 190 0.0 0.0 0.00 0.00 0.00 100 1014.2
20260831031207 15 190 0.0 0.0 0.00 0.00 0.00 100 1014.5
20260831031107 15 190 0.0 0.0 0.00 0.00 0.00 100 1014.6
20260831031008 15 190 0.0 0.0 0.00 0.00 0.00 100 1014.3
20260831030907 15 190 0.0 0.0 0.00 0.00 0.00 100 1014.6
20260831030821 15 190 0.0 0.0 0.00 0.00 0.00 100 1014.2
20260831030804 15 190 0.0 0.0 0.00 0.00 0.00 100 1014.2
20260831030744 15 190 0.0 0.0 0.00 0.00 0.00 100 1014.5
20260831030728 15 190 0.0 0.0 0.00 0.00 0.00 100 1014.5
20260831030406 14 190 0.0 0.0 0.00 0.00 0.00 100 1014.6
20260831030338 15 190 0.0 0.0 0.00 0.00 0.00 100 1014.5
20260831030329 14 190 0.0 0.0 0.00 0.00 0.00 100 1014.6
20260831030307 14 190 0.0 0.0 0.00 0.00 0.00 100 1014.5
20260831030251 14 190 0.0 0.0 0.00 0.00 0.00 100 1014.6
20260831030031 15 190 0.0 0.0 0.00 0.00 0.00 100 1014.3
20260831030023 14 190 0.0 0.0 0.00 0.00 0.00 100 1014.3
20260831030008 14 190 0.0 0.0 0.00 0.00 0.00 100 1014.3
20260831025952 15 190 0.0 0.0 0.00 0.00 0.00 100 1014.7
20260831025935 15 190 0.0 0.0 0.00 0.00 0.00 100 1014.7
20260831025928 15 190 0.0 0.0 0.00 0.00 0.00 100 1014.5
20260831025912 15 190 0.0 0.0 0.00 0.00 0.00 100 1014.3
20260831025855 15 190 0.0 0.0 0.00 0.00 0.00 100 1014.6
20260831025840 15 190 0.0 0.0 0.00 0.00 0.00 100 1014.6
20260831025824 15 190 0.0 0.0 0.00 0.00 0.00 100 1014.5
20260831025808 15 190 0.0 0.0 0.00 0.00 0.00 100 1014.5
20260831025802 15 190 0.0 0.0 0.00 0.00 0.00 100 1014.6
20260831025746 15 190 0.0 0.0 0.00 0.00 0.00 100 1014.5
20260831025729 15 190 0.0 0.0 0.00 0.00 0.00 100 1014.7
20260831025454 15 190 0.0 0.0 0.00 0.00 0.00 100 1014.5
20260831025227 15 190 0.0 0.0 0.00 0.00 0.00 100 1014.5
20260831024951 15 190 0.0 0.0 0.00 0.00 0.00 100 1014.6
20260831024935 15 190 0.0 0.0 0.00 0.00 0.00 100 1014.5
20260831024448 15 190 0.0 0.0 0.00 0.00 0.00 100 1014.3
20260831023942 15 190 0.0 0.0 0.00 0.00 0.00 100 1014.6
20260831023908 15 190 0.0 0.0 0.00 0.00 0.00 100 1014.6
20260831023555 15 190 0.0 0.0 0.00 0.00 0.00 100 1014.8
20260831023454 15 190 0.0 0.0 0.00 0.00 0.00 100 1014.7
20260831023354 15 190 0.0 0.0 0.00 0.00 0.00 100 1014.5
20260831023250 15 190 0.0 0.0 0.00 0.00 0.00 100 1014.3
20260831023229 15 190 0.0 0.0 0.00 0.00 0.00 100 1014.6
20260831023214 15 190 0.0 0.0 0.00 0.00 0.00 99 1014.7
20260831022854 15 190 0.0 0.0 0.00 0.00 0.00 99 1014.5
20260831022756 15 190 0.0 0.0 0.00 0.00 0.00 99 1014.7
20260831022714 15 190 0.0 0.0 0.00 0.00 0.00 99 1014.7
20260831022654 15 190 0.0 0.0 0.00 0.00 0.00 99 1014.6
20260831022554 15 190 0.0 0.0 0.00 0.00 0.00 99 1014.6
20260831022455 15 190 0.0 0.0 0.00 0.00 0.00 99 1014.7
20260831022354 15 190 0.0 0.0 0.00 0.00 0.00 99 1014.6
20260831022255 15 190 0.0 0.0 0.00 0.00 0.00 99 1014.7
20260831022214 15 190 0.0 0.0 0.00 0.00 0.00 99 1014.7
20260831022154 15 190 0.0 0.0 0.00 0.00 0.00 99 1014.7
20260831022054 15 190 0.0 0.0 0.00 0.00 0.00 99 1014.6
20260831021954 15 190 0.0 0.0 0.00 0.00 0.00 99 1014.6
20260831021854 15 190 0.0 0.0 0.00 0.00 0.00 99 1014.3
20260831021715 15 190 0.0 0.0 0.00 0.00 0.00 99 1014.8
20260831021643 15 190 0.0 0.0 0.00 0.00 0.00 99 1014.3
20260831021542 15 190 0.0 0.0 0.00 0.00 0.00 99 1014.5
20260831021510 15 190 0.0 0.0 0.00 0.00 0.00 99 1014.6
20260831021503 15 190 0.0 0.0 0.00 0.00 0.00 99 1014.6
20260831021447 15 190 0.0 0.0 0.00 0.00 0.00 99 1014.8
20260831021432 15 190 0.0 0.0 0.00 0.00 0.00 99 1014.6
20260831021142 15 190 0.0 0.0 0.00 0.00 0.00 99 1014.3
20260831021042 15 190 0.0 0.0 0.00 0.00 0.00 99 1014.8
20260831020942 15 190 0.0 0.0 0.00 0.00 0.00 98 1014.3
20260831020842 15 190 0.0 0.0 0.00 0.00 0.00 98 1014.5
20260831020733 15 190 0.0 0.0 0.00 0.00 0.00 98 1014.6
20260831020724 15 190 0.0 0.0 0.00 0.00 0.00 98 1014.5
20260831020714 15 190 0.0 0.0 0.00 0.00 0.00 98 1014.2
20260831020700 15 190 0.0 0.0 0.00 0.00 0.00 98 1014.8
20260831020644 15 190 0.0 0.0 0.00 0.00 0.00 98 1014.7
20260831020628 15 190 0.0 0.0 0.00 0.00 0.00 98 1014.7
20260831020613 15 190 0.0 0.0 0.00 0.00 0.00 98 1014.6
20260831020041 15 190 0.0 0.0 0.00 0.00 0.00 98 1014.7
20260831015942 15 190 0.0 0.0 0.00 0.00 0.00 98 1014.8
20260831015842 15 190 0.0 0.0 0.00 0.00 0.00 98 1014.6
20260831015715 15 190 0.0 0.0 0.00 0.00 0.00 98 1014.6
20260831015642 15 190 0.0 0.0 0.00 0.00 0.00 98 1014.7
20260831015541 15 190 0.0 0.0 0.00 0.00 0.00 98 1014.7
20260831015443 15 190 0.0 0.0 0.00 0.00 0.00 98 1014.6
20260831015343 15 190 0.0 0.0 0.00 0.00 0.00 98 1014.7
20260831015214 15 190 0.0 0.0 0.00 0.00 0.00 98 1014.6
20260831015141 15 190 0.0 0.0 0.00 0.00 0.00 98 1014.7
20260831015042 15 190 0.0 0.0 0.00 0.00 0.00 98 1014.6
20260831014941 15 190 0.0 0.0 0.00 0.00 0.00 98 1014.5
20260831014844 15 190 0.0 0.0 0.00 0.00 0.00 98 1014.7
20260831014716 15 190 0.0 0.0 0.00 0.00 0.00 98 1014.5
20260831014630 15 190 0.0 0.0 0.00 0.00 0.00 98 1014.7
20260831014530 15 190 0.0 0.0 0.00 0.00 0.00 98 1014.5
20260831014431 15 190 0.0 0.0 0.00 0.00 0.00 98 1014.6
20260831014331 15 190 0.0 0.0 0.00 0.00 0.00 98 1014.6
20260831014310 16 190 0.0 0.0 0.00 0.00 0.00 98 1014.8
20260831014250 15 190 0.0 0.0 0.00 0.00 0.00 98 1014.8
20260831014240 15 190 0.0 0.0 0.00 0.00 0.00 98 1014.7
20260831014224 15 190 0.0 0.0 0.00 0.00 0.00 98 1014.7
20260831013947 16 190 0.0 0.0 0.00 0.00 0.00 98 1014.8
20260831013931 16 190 0.0 0.0 0.00 0.00 0.00 98 1014.8
20260831013630 15 190 0.0 0.0 0.00 0.00 0.00 98 1014.7
20260831013530 15 190 0.0 0.0 0.00 0.00 0.00 98 1014.7
20260831013431 15 190 0.0 0.0 0.00 0.00 0.00 97 1014.6
20260831013331 15 190 0.0 0.0 0.00 0.00 0.00 97 1014.7
20260831013217 15 190 0.0 0.0 0.00 0.00 0.00 97 1014.9
20260831013207 15 190 0.0 0.0 0.00 0.00 0.00 97 1014.6
20260831013150 15 190 0.0 0.0 0.00 0.00 0.00 97 1014.5
20260831012829 15 190 0.0 0.0 0.00 0.00 0.00 97 1014.9
20260831012714 15 190 0.0 0.0 0.00 0.00 0.00 97 1014.5
20260831012629 15 190 0.0 0.0 0.00 0.00 0.00 97 1014.6
20260831012529 16 190 0.0 0.0 0.00 0.00 0.00 97 1014.6
20260831012430 16 190 0.0 0.0 0.00 0.00 0.00 97 1014.3
20260831012330 16 190 0.0 0.0 0.00 0.00 0.00 97 1014.3
20260831012214 16 190 0.0 0.0 0.00 0.00 0.00 97 1014.6
20260831012129 16 190 0.0 0.0 0.00 0.00 0.00 97 1014.6
20260831012029 16 190 0.0 0.0 0.00 0.00 0.00 97 1014.6
20260831011930 16 190 0.0 0.0 0.00 0.00 0.00 97 1014.7
20260831011830 16 190 0.0 0.0 0.00 0.00 0.00 97 1014.7
20260831011759 16 190 0.0 0.0 0.00 0.00 0.00 97 1014.7
20260831011749 16 190 0.0 0.0 0.00 0.00 0.00 97 1014.5
20260831011433 16 190 0.0 0.0 0.00 0.00 0.00 97 1014.3
20260831011418 16 190 0.0 0.0 0.00 0.00 0.00 97 1014.6
20260831011356 16 190 0.0 0.0 0.00 0.00 0.00 97 1014.6
20260831011340 16 189 0.0 0.0 0.00 0.00 0.00 97 1014.5
20260831011324 16 189 0.0 0.0 0.00 0.00 0.00 98 1014.5
20260831011308 16 189 0.0 0.0 0.00 0.00 0.00 98 1014.6
20260831011024 16 189 0.0 0.0 0.00 0.00 0.00 98 1014.6
20260831011008 16 188 0.0 0.0 0.00 0.00 0.00 98 1014.5
20260831010952 16 187 0.0 0.0 0.00 0.00 0.00 98 1014.5
20260831010716 16 190 0.0 0.0 0.00 0.00 0.00 98 1014.5
20260831010450 16 190 0.0 0.0 0.00 0.00 0.00 98 1014.6
20260831010435 16 191 0.0 0.0 0.00 0.00 0.00 98 1014.7
20260831010419 16 191 0.0 0.0 0.00 0.00 0.00 98 1014.7
20260831010404 16 191 0.0 0.0 0.00 0.00 0.00 98 1014.7
20260831010119 16 190 0.0 0.0 0.00 0.00 0.00 98 1014.9
20260831005842 16 190 0.0 0.0 0.00 0.00 0.00 98 1014.6
20260831005605 16 190 0.0 0.0 0.00 0.00 0.00 97 1014.9
20260831005338 16 190 0.0 0.0 0.00 0.00 0.00 98 1014.8
20260831005018 16 190 0.0 0.0 0.00 0.00 0.00 97 1014.7
20260831004959 16 190 0.0 0.0 0.00 0.00 0.00 97 1014.7
20260831004944 16 190 0.0 0.0 0.00 0.00 0.00 97 1014.8
20260831004715 16 190 0.0 0.0 0.00 0.00 0.00 97 1014.7
20260831004259 16 189 0.0 1.6 0.00 0.00 0.00 97 1014.9
20260831004214 16 190 0.0 1.6 0.00 0.00 0.00 97 1014.9
20260831004113 16 190 0.0 1.6 0.00 0.00 0.00 97 1015.0
20260831004014 16 190 0.0 0.0 0.00 0.00 0.00 97 1015.0
20260831003913 16 191 0.0 0.0 0.00 0.00 0.00 97 1014.9
20260831003813 16 191 0.0 0.0 0.00 0.00 0.00 97 1014.8
20260831003757 16 191 0.0 0.0 0.00 0.00 0.00 97 1014.8
20260831003714 16 191 0.0 0.0 0.00 0.00 0.00 97 1015.1
20260831003613 16 191 0.0 0.0 0.00 0.00 0.00 97 1014.9
20260831003513 16 191 0.0 0.0 0.00 0.00 0.00 97 1014.8
20260831003413 16 191 0.0 0.0 0.00 0.00 0.00 97 1014.7
20260831003313 16 191 0.0 0.0 0.00 0.00 0.00 97 1014.8
20260831003258 16 191 0.0 0.0 0.00 0.00 0.00 97 1014.8
20260831003213 16 191 0.0 0.0 0.00 0.00 0.00 97 1015.1
20260831003113 16 191 0.0 0.0 0.00 0.00 0.00 97 1014.9
20260831003013 16 191 0.0 0.0 0.00 0.00 0.00 97 1014.8
20260831002913 16 191 0.0 0.0 0.00 0.00 0.00 97 1014.9
20260831002814 16 191 0.0 0.0 0.00 0.00 0.00 96 1015.0
20260831002757 16 191 0.0 0.0 0.00 0.00 0.00 96 1015.0
20260831002712 16 191 0.0 0.0 0.00 0.00 0.00 97 1014.9
20260831002613 16 191 0.0 0.0 0.00 0.00 0.00 96 1015.0
20260831002513 16 191 0.0 0.0 0.00 0.00 0.00 96 1015.0
20260831002413 16 191 0.0 0.0 0.00 0.00 0.00 96 1014.9
20260831002312 16 191 0.0 0.0 0.00 0.00 0.00 96 1014.7
20260831002248 16 191 0.0 0.0 0.00 0.00 0.00 96 1014.7
20260831002232 16 191 0.0 0.0 0.00 0.00 0.00 96 1014.8
20260831001952 16 191 0.0 0.0 0.00 0.00 0.00 96 1015.1
20260831001948 16 190 0.0 0.0 0.00 0.00 0.00 96 1014.8
20260831001943 16 191 0.0 0.0 0.00 0.00 0.00 95 1014.8
20260831001936 16 191 0.0 0.0 0.00 0.00 0.00 96 1014.9
20260831001920 16 191 0.0 0.0 0.00 0.00 0.00 96 1014.7
20260831001908 16 191 0.0 0.0 0.00 0.00 0.00 96 1014.7
20260831001855 16 191 0.0 0.0 0.00 0.00 0.00 96 1015.1
20260831001840 16 191 0.0 0.0 0.00 0.00 0.00 96 1015.1
20260831001826 16 191 0.0 0.0 0.00 0.00 0.00 96 1015.1
20260831001810 16 191 0.0 0.0 0.00 0.00 0.00 96 1015.0
20260831001755 16 191 0.0 0.0 0.00 0.00 0.00 96 1015.1
20260831001530 16 191 0.0 0.0 0.00 0.00 0.00 96 1015.0
20260831001035 16 191 0.0 0.0 0.00 0.00 0.00 96 1015.0
20260831001020 16 191 0.0 0.0 0.00 0.00 0.00 96 1014.9
20260831001008 16 191 0.0 0.0 0.00 0.00 0.00 96 1014.9
20260831000955 16 191 0.0 0.0 0.00 0.00 0.00 96 1015.0
20260831000941 16 191 0.0 0.0 0.00 0.00 0.00 96 1015.0
20260831000924 16 191 0.0 0.0 0.00 0.00 0.00 96 1015.0
20260831000909 16 191 0.0 0.0 0.00 0.00 0.00 96 1014.9
20260831000853 16 191 0.0 0.0 0.00 0.00 0.00 96 1014.9
20260831000841 16 191 0.0 0.0 0.00 0.00 0.00 96 1014.9
20260831000350 16 191 0.0 0.0 0.00 0.00 0.00 96 1014.9
20260831000334 16 191 0.0 0.0 0.00 0.00 0.00 96 1014.9
20260831000319 16 191 0.0 0.0 0.00 0.00 0.00 96 1014.9
20260831000307 16 191 0.0 0.0 0.00 0.00 0.00 96 1014.9
20260830235814 16 191 0.0 0.0 0.00 0.00 0.00 96 1014.9
20260830235759 16 190 0.0 0.0 0.00 0.00 0.00 96 1015.1
20260830235742 16 190 0.0 0.0 0.00 0.00 0.00 96 1014.8
20260830235515 16 191 0.0 0.0 0.00 0.00 0.00 96 1015.0
20260830235239 16 191 0.0 0.0 0.00 0.00 0.00 96 1014.7
20260830235224 16 191 0.0 0.0 0.00 0.00 0.00 96 1014.8
20260830234954 16 191 0.0 0.0 0.00 0.00 0.00 96 1015.0
20260830234721 16 191 0.0 0.0 0.00 0.00 0.00 95 1014.9
20260830234707 16 191 0.0 0.0 0.00 0.00 0.00 95 1014.8
20260830234652 16 191 0.0 0.0 0.00 0.00 0.00 95 1014.9
20260830234635 16 191 0.0 0.0 0.00 0.00 0.00 95 1014.8
20260830234408 16 190 0.0 0.0 0.00 0.00 0.00 95 1014.9
20260830234133 16 190 0.0 0.0 0.00 0.00 0.00 94 1014.8
20260830233813 17 190 0.0 0.0 0.00 0.00 0.00 94 1015.0
20260830233758 17 190 0.0 0.0 0.00 0.00 0.00 94 1015.0
20260830233713 17 190 0.0 0.0 0.00 0.00 0.00 94 1014.8
20260830233614 17 190 0.0 0.0 0.00 0.00 0.00 94 1014.8
20260830233513 17 191 0.0 0.0 0.00 0.00 0.00 93 1014.8
20260830233456 17 191 0.0 0.0 0.00 0.00 0.00 93 1014.8
20260830233441 17 191 0.0 0.0 0.00 0.00 0.00 93 1015.0
20260830233429 17 191 0.0 0.0 0.00 0.00 0.00 93 1015.0
20260830233114 17 191 0.0 0.0 0.00 0.00 0.00 93 1015.1
20260830233012 17 191 0.0 0.0 0.00 0.00 0.00 93 1014.9
20260830232913 17 191 0.0 0.0 0.00 0.00 0.00 93 1014.8
20260830232853 17 191 0.0 0.0 0.00 0.00 0.00 93 1015.0
20260830232845 17 191 0.0 0.0 0.00 0.00 0.00 93 1014.8
20260830232834 17 191 0.0 0.0 0.00 0.00 0.00 93 1014.8
20260830232821 17 191 0.0 0.0 0.00 0.00 0.00 93 1015.0
20260830232805 17 191 0.0 0.0 0.00 0.00 0.00 93 1014.9
20260830232750 17 191 0.0 0.0 0.00 0.00 0.00 93 1014.9
20260830232513 17 191 0.0 0.0 0.00 0.00 0.00 93 1015.0
20260830232201 17 191 0.0 0.0 0.00 0.00 0.00 93 1015.1
20260830232100 17 191 0.0 0.0 0.00 0.00 0.00 93 1014.9
20260830232003 17 191 0.0 0.0 0.00 0.00 0.00 93 1015.1
20260830231901 17 191 0.0 0.0 0.00 0.00 0.00 93 1015.1
20260830231746 17 191 0.0 0.0 0.00 0.00 0.00 93 1014.8
20260830231701 17 191 0.0 0.0 0.00 0.00 0.00 93 1014.7
20260830231603 17 191 0.0 0.0 0.00 0.00 0.00 93 1015.0
20260830231545 17 191 0.0 0.0 0.00 0.00 0.00 92 1014.9
20260830231529 17 191 0.0 0.0 0.00 0.00 0.00 92 1015.0
20260830231502 17 191 0.0 0.0 0.00 0.00 0.00 92 1014.8
20260830231439 17 191 0.0 0.0 0.00 0.00 0.00 92 1014.9
20260830231425 17 191 0.0 0.0 0.00 0.00 0.00 92 1014.8
20260830231409 17 191 0.0 0.0 0.00 0.00 0.00 92 1015.0
20260830230918 17 191 0.0 0.0 0.00 0.00 0.00 92 1014.9
20260830230601 17 191 0.0 0.0 0.00 0.00 0.00 92 1014.9
20260830230501 17 191 0.0 0.0 0.00 0.00 0.00 92 1015.0
20260830230403 17 191 0.0 0.0 0.00 0.00 0.00 92 1014.8
20260830230245 17 191 0.0 0.0 0.00 0.00 0.00 92 1014.8
20260830230203 17 191 0.0 0.0 0.00 0.00 0.00 92 1014.8
20260830230137 17 191 0.0 0.0 0.00 0.00 0.00 92 1014.9
20260830230121 17 191 0.0 0.0 0.00 0.00 0.00 92 1014.9
20260830225749 17 191 0.0 0.0 0.00 0.00 0.00 92 1014.8
20260830225737 17 191 0.0 0.0 0.00 0.00 0.00 91 1015.3
20260830225721 17 191 0.0 0.0 0.00 0.00 0.00 91 1014.9
20260830225401 17 191 0.0 0.0 0.00 0.00 0.00 91 1015.0
20260830225246 17 191 0.0 0.0 0.00 0.00 0.00 91 1014.9
20260830225200 17 190 0.0 0.0 0.00 0.00 0.00 91 1015.0
20260830225134 17 190 0.0 0.0 0.00 0.00 0.00 90 1015.0
20260830225125 17 190 0.0 0.0 0.00 0.00 0.00 91 1015.0
20260830225110 17 190 0.0 0.0 0.00 0.00 0.00 91 1015.0
20260830225055 17 190 0.0 0.0 0.00 0.00 0.00 91 1014.8
20260830225027 17 190 0.0 0.0 0.00 0.00 0.00 91 1014.9
20260830225015 17 190 0.0 0.0 0.00 0.00 0.00 91 1015.0
20260830224517 17 190 0.0 0.0 0.00 0.00 0.00 90 1014.8
20260830224501 17 190 0.0 0.0 0.00 0.00 0.00 90 1015.0
20260830224200 17 190 0.0 0.0 0.00 0.00 0.00 90 1014.9
20260830224101 17 190 0.0 0.0 0.00 0.00 0.00 90 1014.9
20260830224001 17 191 0.0 0.0 0.00 0.00 0.00 90 1015.2
20260830223903 17 191 0.0 0.0 0.00 0.00 0.00 90 1015.0
20260830223747 17 191 0.0 0.0 0.00 0.00 0.00 90 1015.0
20260830223700 17 191 0.0 0.0 0.00 0.00 0.00 90 1015.1
20260830223601 17 190 0.0 0.0 0.00 0.00 0.00 89 1014.9
20260830223501 17 191 0.0 0.0 0.00 0.00 0.00 89 1015.0
20260830223401 17 191 0.0 0.0 0.00 0.00 0.00 89 1014.8
20260830223245 18 191 0.0 0.0 0.00 0.00 0.00 89 1015.2
20260830223201 18 191 0.0 0.0 0.00 0.00 0.00 89 1015.2
20260830223100 18 191 0.0 0.0 0.00 0.00 0.00 88 1014.9
20260830223002 18 190 0.0 0.0 0.00 0.00 0.00 88 1015.0
20260830222946 18 190 0.0 0.0 0.00 0.00 0.00 87 1015.0
20260830222918 18 191 0.0 0.0 0.00 0.00 0.00 87 1015.0
20260830222602 18 191 0.0 0.0 0.00 0.00 0.00 87 1015.3
20260830222500 18 191 0.0 0.0 0.00 0.00 0.00 87 1015.1
20260830222401 18 191 0.0 0.0 0.00 0.00 0.00 87 1015.1
20260830222301 18 191 0.0 0.0 0.00 0.00 0.00 86 1015.1
20260830222246 18 190 0.0 0.0 0.00 0.00 0.00 86 1015.1
20260830222201 18 191 0.0 0.0 0.00 0.00 0.00 86 1015.0
20260830222102 18 191 0.0 0.0 0.00 0.00 0.00 85 1015.3
20260830222046 18 191 0.0 1.6 0.00 0.00 0.00 84 1015.0
20260830222036 18 191 0.0 0.0 0.00 0.00 0.00 85 1015.0
20260830222021 18 191 0.0 0.0 0.00 0.00 0.00 84 1015.0
20260830222005 18 191 0.0 1.6 0.00 0.00 0.00 84 1015.0
20260830221742 18 185 1.6 1.6 0.00 0.00 0.00 85 1015.0
20260830221732 18 190 0.0 1.6 0.00 0.00 0.00 84 1015.2
20260830221716 18 190 0.0 1.6 0.00 0.00 0.00 84 1015.0
20260830221700 18 190 0.0 1.6 0.00 0.00 0.00 84 1014.9
20260830221412 18 189 0.0 1.6 0.00 0.00 0.00 84 1015.2
20260830221402 18 188 0.0 1.6 0.00 0.00 0.00 84 1015.2
20260830221345 18 188 0.0 1.6 0.00 0.00 0.00 84 1015.1
20260830221329 18 186 0.0 1.6 0.00 0.00 0.00 84 1015.0
20260830221313 18 185 0.0 1.6 0.00 0.00 0.00 84 1015.1
20260830221258 18 185 1.6 1.6 0.00 0.00 0.00 85 1015.0
20260830220501 20 182 1.6 1.6 0.00 0.00 0.00 84 1014.9
20260830220401 20 187 0.0 0.0 0.00 0.00 0.00 83 1015.0
20260830220301 20 194 0.0 0.0 0.00 0.00 0.00 82 1015.1
20260830220245 20 195 0.0 0.0 0.00 0.00 0.00 82 1015.1
20260830220203 20 195 0.0 0.0 0.00 0.00 0.00 81 1015.0
20260830220002 20 195 0.0 0.0 0.00 0.00 0.00 78 1015.1
20260830215946 20 192 0.0 0.0 0.00 0.00 0.00 78 1014.9
20260830215918 20 192 0.0 0.0 0.00 0.00 0.00 78 1014.9
20260830215601 20 192 0.0 0.0 0.00 0.00 0.00 78 1015.0
20260830215535 20 191 0.0 0.0 0.00 0.00 0.00 78 1014.9
20260830215521 20 192 0.0 0.0 0.00 0.00 0.00 79 1014.7
20260830215245 20 186 0.0 1.6 0.00 0.00 0.00 79 1015.2
20260830215201 20 183 0.0 1.6 0.00 0.00 0.00 79 1015.2
20260830215101 20 185 0.0 1.6 0.00 0.00 0.00 81 1015.1
20260830215042 19 194 0.0 1.6 0.00 0.00 0.00 81 1015.0
20260830215034 19 188 0.0 1.6 0.00 0.00 0.00 81 1014.8
20260830215019 19 190 0.0 1.6 0.00 0.00 0.00 81 1015.2
20260830215003 19 194 0.0 1.6 0.00 0.00 0.00 81 1015.0
20260830214701 19 194 0.0 1.6 0.00 0.00 0.00 81 1015.0
20260830214601 19 193 0.0 1.6 0.00 0.00 0.00 81 1015.1
20260830214501 19 192 0.0 1.6 0.00 0.00 0.00 81 1015.0
20260830214401 19 192 0.0 3.2 0.00 0.00 0.00 81 1014.9
20260830214300 19 191 0.0 3.2 0.00 0.00 0.00 82 1014.9
20260830214245 19 190 0.0 3.2 0.00 0.00 0.00 82 1014.9
20260830214201 19 190 0.0 3.2 0.00 0.00 0.00 82 1015.0
20260830214102 19 191 0.0 3.2 0.00 0.00 0.00 82 1015.1
20260830214002 19 191 0.0 3.2 0.00 0.00 0.00 82 1015.0
20260830213901 19 186 0.0 3.2 0.00 0.00 0.00 83 1015.0
20260830213745 19 178 0.0 3.2 0.00 0.00 0.00 83 1014.9
20260830213702 19 192 0.0 3.2 0.00 0.00 0.00 84 1015.0
20260830213601 19 192 0.0 3.2 0.00 0.00 0.00 84 1015.0
20260830213501 19 150 1.6 3.2 0.00 0.00 0.00 84 1015.0
20260830213401 19 189 0.0 1.6 0.00 0.00 0.00 84 1014.9
20260830213301 19 178 0.0 1.6 0.00 0.00 0.00 84 1015.2
20260830213245 19 183 0.0 1.6 0.00 0.00 0.00 84 1015.2
20260830213202 19 186 0.0 1.6 0.00 0.00 0.00 84 1015.1
20260830213101 19 186 0.0 1.6 0.00 0.00 0.00 84 1015.2
20260830213021 20 199 0.0 0.0 0.00 0.00 0.00 76 1015.0
20260830213014 20 186 0.0 1.6 0.00 0.00 0.00 84 1014.9
20260830212959 20 185 0.0 1.6 0.00 0.00 0.00 83 1015.2
20260830212943 20 179 0.0 1.6 0.00 0.00 0.00 83 1014.9
20260830212931 20 175 1.6 1.6 0.00 0.00 0.00 82 1014.9
20260830212920 20 176 1.6 1.6 0.00 0.00 0.00 82 1014.9
20260830212904 20 186 0.0 1.6 0.00 0.00 0.00 81 1015.0
20260830212848 20 199 0.0 0.0 0.00 0.00 0.00 79 1015.0
20260830212832 20 199 0.0 0.0 0.00 0.00 0.00 78 1015.1
20260830212805 20 199 0.0 0.0 0.00 0.00 0.00 77 1015.0
20260830212754 20 199 0.0 0.0 0.00 0.00 0.00 77 1014.9
20260830212739 20 199 0.0 0.0 0.00 0.00 0.00 77 1015.1
20260830212723 20 199 0.0 0.0 0.00 0.00 0.00 76 1015.0
20260830212708 20 199 0.0 0.0 0.00 0.00 0.00 76 1015.3
20260830211739 20 199 0.0 0.0 0.00 0.00 0.00 76 1015.1
20260830211723 20 199 0.0 0.0 0.00 0.00 0.00 76 1015.1
20260830211452 20 199 0.0 0.0 0.00 0.00 0.00 76 1015.2
20260830211441 21 199 0.0 0.0 0.00 0.00 0.00 76 1014.9
20260830211426 21 199 0.0 0.0 0.00 0.00 0.00 76 1015.0
20260830211409 21 199 0.0 0.0 0.00 0.00 0.00 76 1015.1
20260830210918 21 199 0.0 0.0 0.00 0.00 0.00 76 1015.1
20260830210601 21 199 0.0 0.0 0.00 0.00 0.00 76 1015.2
20260830210502 21 199 0.0 0.0 0.00 0.00 0.00 76 1015.0
20260830210402 21 199 0.0 0.0 0.00 0.00 0.00 76 1015.1
20260830210245 21 199 0.0 0.0 0.00 0.00 0.00 76 1014.9
20260830210201 21 199 0.0 0.0 0.00 0.00 0.00 76 1015.0
20260830210135 21 199 0.0 0.0 0.00 0.00 0.00 76 1015.0
20260830210127 21 199 0.0 0.0 0.00 0.00 0.00 76 1015.0
20260830210111 21 199 0.0 0.0 0.00 0.00 0.00 76 1015.0
20260830210056 21 199 0.0 0.0 0.00 0.00 0.00 76 1015.0
20260830210040 21 199 0.0 0.0 0.00 0.00 0.00 76 1015.0
20260830205813 21 199 0.0 0.0 0.00 0.00 0.00 76 1014.9
20260830205757 21 198 0.0 0.0 0.00 0.00 0.00 76 1014.8
20260830205521 21 199 0.0 0.0 0.00 0.00 0.00 75 1015.0
20260830205233 21 199 0.0 0.0 0.00 0.00 0.00 74 1014.8
20260830205202 21 199 0.0 0.0 0.00 0.00 0.00 74 1015.1
20260830205104 21 199 0.0 0.0 0.00 0.00 0.00 74 1015.0
20260830205001 21 199 0.0 0.0 0.00 0.00 0.00 74 1015.0
20260830204900 22 199 0.0 0.0 0.00 0.00 0.00 73 1014.9
20260830204801 22 199 0.0 0.0 0.00 0.00 0.00 73 1014.7
20260830204734 22 199 0.0 0.0 0.00 0.00 0.00 72 1014.7
20260830204701 22 199 0.0 0.0 0.00 0.00 0.00 71 1014.8
20260830204550 22 199 0.0 0.0 0.00 0.00 0.00 71 1014.9
20260830204449 22 199 0.0 0.0 0.00 0.00 0.00 71 1014.9
20260830204422 22 199 0.0 0.0 0.00 0.00 0.00 71 1015.0
20260830204355 22 199 0.0 0.0 0.00 0.00 0.00 71 1014.8
20260830204344 22 204 0.0 0.0 0.00 0.00 0.00 71 1015.0
20260830204329 22 204 0.0 0.0 0.00 0.00 0.00 71 1014.8
20260830203816 22 204 0.0 0.0 0.00 0.00 0.00 71 1015.1
20260830203803 22 204 0.0 1.6 0.00 0.00 0.00 71 1015.1
20260830203751 22 205 0.0 1.6 0.00 0.00 0.00 70 1014.8
20260830203736 22 200 0.0 1.6 0.00 0.00 0.00 70 1014.8
20260830203501 22 194 0.0 1.6 0.00 0.00 0.00 70 1014.9
20260830203445 22 196 0.0 1.6 0.00 0.00 0.00 70 1015.0
20260830203433 22 198 0.0 1.6 0.00 0.00 0.00 69 1015.0
20260830203202 22 192 0.0 1.6 0.00 0.00 0.00 69 1014.9
20260830203146 22 198 0.0 1.6 0.00 0.00 0.00 69 1014.7
20260830203131 22 195 0.0 1.6 0.00 0.00 0.00 69 1014.8
20260830203115 22 184 1.6 1.6 0.00 0.00 0.00 69 1014.8
20260830203103 22 192 0.0 1.6 0.00 0.00 0.00 69 1014.8
20260830203051 22 196 0.0 0.0 0.00 0.00 0.00 70 1014.5
20260830202233 22 198 0.0 0.0 0.00 0.00 0.00 70 1014.6
20260830202150 22 190 0.0 0.0 0.00 0.00 0.00 70 1014.7
20260830202049 22 195 0.0 0.0 0.00 0.00 0.00 69 1014.3
20260830201949 22 198 0.0 0.0 0.00 0.00 0.00 69 1014.7
20260830201850 22 203 0.0 0.0 0.00 0.00 0.00 69 1014.6
20260830201734 22 203 0.0 0.0 0.00 0.00 0.00 69 1014.8
20260830201649 22 203 0.0 0.0 0.00 0.00 0.00 69 1014.5
20260830201548 22 204 0.0 1.6 0.00 0.00 0.00 69 1014.6
20260830201533 23 203 0.0 4.8 0.00 0.00 0.00 66 1014.6
20260830201524 23 204 0.0 1.6 0.00 0.00 0.00 68 1014.6
20260830201507 23 204 0.0 1.6 0.00 0.00 0.00 67 1014.3
20260830201451 23 203 0.0 4.8 0.00 0.00 0.00 66 1014.6
20260830201149 23 203 0.0 4.8 0.00 0.00 0.00 66 1014.6
20260830201050 23 203 0.0 4.8 0.00 0.00 0.00 65 1014.6
20260830201019 23 203 0.0 4.8 0.00 0.00 0.00 65 1014.5
20260830201004 23 204 0.0 4.8 0.00 0.00 0.00 65 1014.6
20260830200738 23 205 0.0 4.8 0.00 0.00 0.00 65 1014.7
20260830200637 23 206 0.0 4.8 0.00 0.00 0.00 65 1014.3
20260830200537 23 208 0.0 4.8 0.00 0.00 0.00 65 1014.6
20260830200437 23 201 0.0 4.8 0.00 0.00 0.00 65 1014.6
20260830200337 23 211 3.2 4.8 0.00 0.00 0.00 64 1014.6
20260830200237 23 214 0.0 4.8 0.00 0.00 0.00 65 1014.6
20260830200138 23 207 0.0 4.8 0.00 0.00 0.00 65 1014.8
20260830200038 23 209 0.0 4.8 0.00 0.00 0.00 64 1014.3
20260830195937 23 211 1.6 4.8 0.00 0.00 0.00 64 1014.8
20260830195836 23 231 4.8 6.4 0.00 0.00 0.00 64 1014.5
20260830195822 23 206 0.0 6.4 0.00 0.00 0.00 64 1014.5
20260830195806 23 210 0.0 6.4 0.00 0.00 0.00 64 1014.6
20260830195748 23 212 1.6 6.4 0.00 0.00 0.00 64 1014.6
20260830195732 23 207 1.6 6.4 0.00 0.00 0.00 64 1014.5
20260830195716 23 218 1.6 6.4 0.00 0.00 0.00 64 1014.7
20260830195700 23 213 1.6 6.4 0.00 0.00 0.00 64 1014.5
20260830195643 23 206 0.0 6.4 0.00 0.00 0.00 64 1014.5
20260830195417 23 212 0.0 6.4 0.00 0.00 0.00 64 1014.5
20260830194838 23 206 0.0 6.4 0.00 0.00 0.00 64 1014.6
20260830194737 23 229 1.6 9.7 0.00 0.00 0.00 64 1014.7
20260830194637 23 204 0.0 9.7 0.00 0.00 0.00 64 1014.5
20260830194537 23 221 4.8 9.7 0.00 0.00 0.00 64 1014.3
20260830194436 23 225 0.0 9.7 0.00 0.00 0.00 64 1014.6
20260830194338 23 214 0.0 9.7 0.00 0.00 0.00 64 1014.7
20260830194237 23 229 4.8 9.7 0.00 0.00 0.00 64 1014.7
20260830194137 23 231 4.8 9.7 0.00 0.00 0.00 64 1014.6
20260830194126 23 234 3.2 9.7 0.00 0.00 0.00 64 1014.3
20260830194122 23 229 4.8 11.3 0.00 0.00 0.00 64 1014.8
20260830194113 23 224 4.8 9.7 0.00 0.00 0.00 64 1014.3
20260830194057 23 205 3.2 9.7 0.00 0.00 0.00 64 1014.3
20260830194042 23 236 6.4 9.7 0.00 0.00 0.00 64 1014.6
20260830194025 23 234 3.2 9.7 0.00 0.00 0.00 64 1014.3
20260830193755 23 234 3.2 9.7 0.00 0.00 0.00 64 1014.5
20260830193740 23 207 3.2 9.7 0.00 0.00 0.00 64 1014.6
20260830193724 23 217 1.6 11.3 0.00 0.00 0.00 64 1014.6
20260830193708 23 226 3.2 11.3 0.00 0.00 0.00 64 1014.6
20260830193138 23 211 3.2 11.3 0.00 0.00 0.00 64 1014.6
20260830193038 23 231 4.8 11.3 0.00 0.00 0.00 64 1014.5
20260830192938 23 234 8.0 11.3 0.00 0.00 0.00 64 1014.5
20260830192928 23 218 1.6 11.3 0.00 0.00 0.00 65 1014.6
20260830192917 23 225 1.6 11.3 0.00 0.00 0.00 64 1014.5
20260830192854 23 222 1.6 11.3 0.00 0.00 0.00 65 1014.5
20260830192836 23 204 0.0 11.3 0.00 0.00 0.00 65 1014.5
20260830192559 23 221 4.8 9.7 0.00 0.00 0.00 65 1014.7
20260830192543 23 224 3.2 9.7 0.00 0.00 0.00 65 1014.5
20260830192312 23 227 3.2 9.7 0.00 0.00 0.00 65 1014.6
20260830192255 23 204 1.6 9.7 0.00 0.00 0.00 65 1014.8
20260830192240 23 205 3.2 9.7 0.00 0.00 0.00 65 1014.5
20260830192004 23 211 1.6 11.3 0.00 0.00 0.00 65 1014.6
20260830191947 23 218 1.6 11.3 0.00 0.00 0.00 65 1014.6
20260830191727 23 214 1.6 11.3 0.00 0.00 0.00 65 1014.7
20260830191714 23 229 1.6 11.3 0.00 0.00 0.00 65 1014.5
20260830191659 23 233 1.6 11.3 0.00 0.00 0.00 65 1014.6
20260830191643 23 234 4.8 11.3 0.00 0.00 0.00 65 1014.5
20260830191627 23 220 3.2 12.9 0.00 0.00 0.00 65 1014.7
20260830191400 23 249 3.2 12.9 0.00 0.00 0.00 65 1014.6
20260830191128 23 233 4.8 12.9 0.00 0.00 0.00 65 1014.6
20260830191119 23 224 4.8 12.9 0.00 0.00 0.00 65 1014.5
20260830191104 23 225 8.0 12.9 0.00 0.00 0.00 65 1014.3
20260830191047 23 227 3.2 12.9 0.00 0.00 0.00 65 1014.5
20260830191029 23 233 4.8 12.9 0.00 0.00 0.00 65 1014.6
20260830190803 23 222 6.4 12.9 0.00 0.00 0.00 65 1014.6
20260830190537 23 238 3.2 12.9 0.00 0.00 0.00 65 1014.7
20260830190527 23 239 9.7 12.9 0.00 0.00 0.00 65 1014.5
20260830190517 23 247 9.7 12.9 0.00 0.00 0.00 65 1014.3
20260830190500 23 216 4.8 11.3 0.00 0.00 0.00 65 1014.6
20260830190438 23 210 3.2 11.3 0.00 0.00 0.00 65 1014.6
20260830190422 23 212 6.4 11.3 0.00 0.00 0.00 65 1014.6
20260830190407 23 213 3.2 11.3 0.00 0.00 0.00 65 1014.8
20260830190351 23 204 1.6 11.3 0.00 0.00 0.00 65 1014.5
20260830190335 23 216 0.0 11.3 0.00 0.00 0.00 65 1014.5
20260830190109 23 228 6.4 11.3 0.00 0.00 0.00 65 1014.7
20260830190038 23 225 3.2 11.3 0.00 0.00 0.00 65 1014.6
20260830190023 23 234 3.2 11.3 0.00 0.00 0.00 65 1014.5
20260830190006 23 237 4.8 11.3 0.00 0.00 0.00 65 1014.3
20260830185950 23 218 1.6 11.3 0.00 0.00 0.00 65 1014.5
20260830185933 23 214 1.6 11.3 0.00 0.00 0.00 65 1014.7
20260830185446 23 218 6.4 11.3 0.00 0.00 0.00 65 1014.7
20260830185210 23 224 8.0 11.3 0.00 0.00 0.00 65 1014.5
20260830184717 23 218 4.8 12.9 0.00 0.00 0.00 64 1014.3
20260830184712 23 204 0.0 11.3 0.00 0.00 0.00 65 1014.3
20260830184704 23 211 6.4 12.9 0.00 0.00 0.00 65 1014.3
20260830184648 23 198 1.6 12.9 0.00 0.00 0.00 65 1014.5
20260830184633 23 218 3.2 12.9 0.00 0.00 0.00 65 1014.2
20260830184617 23 199 3.2 12.9 0.00 0.00 0.00 65 1014.5
20260830184559 23 218 4.8 12.9 0.00 0.00 0.00 64 1014.3
20260830184334 23 204 1.6 12.9 0.00 0.00 0.00 65 1014.6
20260830184318 23 209 3.2 12.9 0.00 0.00 0.00 65 1014.3
20260830184302 23 204 0.0 12.9 0.00 0.00 0.00 65 1014.3
20260830184246 23 223 3.2 12.9 0.00 0.00 0.00 65 1014.3
20260830184224 23 211 8.0 11.3 0.00 0.00 0.00 65 1014.5
20260830184206 23 229 3.2 11.3 0.00 0.00 0.00 65 1014.5
20260830184150 23 228 3.2 11.3 0.00 0.00 0.00 65 1014.3
20260830183914 23 207 4.8 11.3 0.00 0.00 0.00 65 1014.3
20260830183858 23 204 0.0 11.3 0.00 0.00 0.00 65 1014.3
20260830183633 23 222 3.2 11.3 0.00 0.00 0.00 65 1014.3
20260830183616 23 233 3.2 11.3 0.00 0.00 0.00 65 1014.3
20260830183600 23 207 1.6 11.3 0.00 0.00 0.00 65 1014.3
20260830183318 23 200 3.2 9.7 0.00 0.00 0.00 65 1014.6
20260830183300 23 230 3.2 9.7 0.00 0.00 0.00 65 1014.2
20260830183024 23 212 4.8 6.4 0.00 0.00 0.00 65 1014.2
20260830182538 23 230 3.2 6.4 0.00 0.00 0.00 65 1014.3
20260830182301 23 235 4.8 6.4 0.00 0.00 0.00 65 1014.0
20260830182026 23 196 3.2 6.4 0.00 0.00 0.00 65 1014.2
20260830181759 23 194 3.2 6.4 0.00 0.00 0.00 65 1014.5
20260830181742 23 217 3.2 6.4 0.00 0.00 0.00 65 1014.1
20260830181726 23 196 3.2 6.4 0.00 0.00 0.00 65 1014.2
20260830181451 23 203 3.2 6.4 0.00 0.00 0.00 65 1014.2
20260830181428 23 201 1.6 6.4 0.00 0.00 0.00 65 1014.1
20260830181152 23 222 1.6 6.4 0.00 0.00 0.00 65 1014.5
20260830180832 23 205 3.2 6.4 0.00 0.00 0.00 65 1014.1
20260830180757 24 214 3.2 9.7 0.00 0.00 0.00 63 1014.1
20260830180744 23 205 1.6 6.4 0.00 0.00 0.00 65 1014.1
20260830180726 23 236 3.2 6.4 0.00 0.00 0.00 65 1014.5
20260830180710 23 227 4.8 6.4 0.00 0.00 0.00 65 1014.2
20260830180435 23 235 4.8 9.7 0.00 0.00 0.00 65 1014.2
20260830180411 23 223 4.8 9.7 0.00 0.00 0.00 65 1014.3
20260830180356 23 224 4.8 9.7 0.00 0.00 0.00 65 1014.2
20260830180119 23 211 4.8 9.7 0.00 0.00 0.00 64 1014.0
20260830180104 23 225 4.8 9.7 0.00 0.00 0.00 64 1014.2
20260830175828 23 214 3.2 9.7 0.00 0.00 0.00 64 1014.3
20260830175817 23 214 1.6 9.7 0.00 0.00 0.00 64 1014.2
20260830175541 23 240 3.2 6.4 0.00 0.00 0.00 64 1013.9
20260830175527 23 205 3.2 6.4 0.00 0.00 0.00 64 1014.0
20260830175511 24 223 3.2 9.7 0.00 0.00 0.00 64 1014.0
20260830175459 24 225 3.2 9.7 0.00 0.00 0.00 64 1014.0
20260830175449 24 196 3.2 9.7 0.00 0.00 0.00 63 1014.0
20260830175433 24 238 3.2 9.7 0.00 0.00 0.00 64 1014.1
20260830174937 24 235 3.2 9.7 0.00 0.00 0.00 63 1014.1
20260830174708 24 222 4.8 9.7 0.00 0.00 0.00 63 1014.1
20260830174653 24 210 3.2 9.7 0.00 0.00 0.00 63 1014.2
20260830174416 24 241 4.8 9.7 0.00 0.00 0.00 63 1014.2
20260830174348 24 224 4.8 9.7 0.00 0.00 0.00 63 1014.0
20260830174032 24 226 3.2 9.7 0.00 0.00 0.00 63 1013.9
20260830173932 24 207 3.2 9.7 0.00 0.00 0.00 63 1014.0
20260830173832 24 200 3.2 9.7 0.00 0.00 0.00 63 1014.0
20260830173731 24 229 1.6 9.7 0.00 0.00 0.00 63 1014.0
20260830173717 24 200 4.8 9.7 0.00 0.00 0.00 63 1014.0
20260830173632 24 209 3.2 6.4 0.00 0.00 0.00 63 1013.9
20260830173547 25 206 3.2 9.7 0.00 0.00 0.00 61 1013.7
20260830173542 24 196 0.0 9.7 0.00 0.00 0.00 62 1013.8
20260830173525 24 213 4.8 9.7 0.00 0.00 0.00 62 1014.1
20260830173511 24 220 3.2 9.7 0.00 0.00 0.00 63 1013.9
20260830173455 24 210 1.6 9.7 0.00 0.00 0.00 62 1014.1
20260830173442 24 207 1.6 9.7 0.00 0.00 0.00 62 1014.1
20260830173432 24 221 3.2 9.7 0.00 0.00 0.00 62 1014.0
20260830173416 24 209 3.2 9.7 0.00 0.00 0.00 62 1013.9
20260830173401 24 219 6.4 9.7 0.00 0.00 0.00 62 1014.0
20260830173345 24 224 3.2 9.7 0.00 0.00 0.00 62 1013.9
20260830173328 24 213 1.6 9.7 0.00 0.00 0.00 62 1013.9
20260830173314 24 227 3.2 9.7 0.00 0.00 0.00 62 1013.9
20260830173304 24 198 3.2 9.7 0.00 0.00 0.00 62 1014.0
20260830173248 24 205 1.6 9.7 0.00 0.00 0.00 62 1013.7
20260830173012 24 207 0.0 9.7 0.00 0.00 0.00 62 1013.7
20260830172306 25 194 1.6 12.9 0.00 0.00 0.00 61 1013.8
20260830172250 25 225 3.2 12.9 0.00 0.00 0.00 61 1013.7
20260830172233 25 242 4.8 12.9 0.00 0.00 0.00 61 1013.7
20260830171958 25 196 0.0 12.9 0.00 0.00 0.00 61 1014.0
20260830171949 25 210 1.6 12.9 0.00 0.00 0.00 61 1013.8
20260830171452 25 216 3.2 12.9 0.00 0.00 0.00 61 1013.9
20260830171217 25 199 3.2 12.9 0.00 0.00 0.00 61 1013.4
20260830171132 25 210 9.7 12.9 0.00 0.00 0.00 61 1013.7
20260830171032 25 206 6.4 11.3 0.00 0.00 0.00 61 1013.7
20260830170933 25 212 1.6 11.3 0.00 0.00 0.00 61 1013.7
20260830170833 25 262 6.4 11.3 0.00 0.00 0.00 60 1013.7
20260830170732 25 204 3.2 11.3 0.00 0.00 0.00 60 1013.8
20260830170718 25 215 4.8 11.3 0.00 0.00 0.00 60 1013.8
20260830170708 25 209 3.2 11.3 0.00 0.00 0.00 61 1013.8
20260830170653 25 206 4.8 11.3 0.00 0.00 0.00 60 1013.6
20260830170332 25 197 0.0 11.3 0.00 0.00 0.00 61 1013.7
20260830170216 25 234 6.4 11.3 0.00 0.00 0.00 60 1013.6
20260830170133 25 239 3.2 11.3 0.00 0.00 0.00 60 1013.9
20260830170105 25 197 0.0 6.4 0.00 0.00 0.00 61 1013.9
20260830170058 25 192 1.6 11.3 0.00 0.00 0.00 60 1013.7
20260830170043 25 213 6.4 11.3 0.00 0.00 0.00 60 1013.8
20260830170027 25 200 0.0 9.7 0.00 0.00 0.00 60 1013.8
20260830170011 25 271 1.6 9.7 0.00 0.00 0.00 60 1013.7
20260830165957 25 213 3.2 9.7 0.00 0.00 0.00 60 1013.7
20260830165947 25 208 4.8 9.7 0.00 0.00 0.00 60 1013.8
20260830165710 25 200 0.0 9.7 0.00 0.00 0.00 60 1013.8
20260830165653 25 250 4.8 9.7 0.00 0.00 0.00 61 1013.9
20260830165133 25 207 1.6 6.4 0.00 0.00 0.00 60 1013.9
20260830165032 25 183 0.0 6.4 0.00 0.00 0.00 60 1013.7
20260830165004 25 221 4.8 4.8 0.00 0.00 0.00 60 1013.7
20260830164948 25 217 3.2 4.8 0.00 0.00 0.00 60 1013.8
20260830164720 25 215 0.0 1.6 0.00 0.00 0.00 61 1013.9
20260830164426 25 192 0.0 9.7 0.00 0.00 0.00 60 1013.8
20260830164409 25 200 1.6 9.7 0.00 0.00 0.00 60 1013.6
20260830163356 25 212 3.2 11.3 0.00 0.00 0.00 60 1013.8
20260830163254 25 199 0.0 11.3 0.00 0.00 0.00 60 1013.8
20260830163154 25 203 3.2 11.3 0.00 0.00 0.00 59 1013.6
20260830163054 25 219 1.6 11.3 0.00 0.00 0.00 60 1013.8
20260830163038 25 217 1.6 11.3 0.00 0.00 0.00 60 1014.1
20260830163021 25 213 3.2 11.3 0.00 0.00 0.00 60 1013.7
20260830162754 25 236 9.7 11.3 0.00 0.00 0.00 59 1013.6
20260830162654 25 222 1.6 6.4 0.00 0.00 0.00 60 1013.8
20260830162555 25 208 1.6 6.4 0.00 0.00 0.00 60 1013.9
20260830162455 25 195 0.0 6.4 0.00 0.00 0.00 59 1013.6
20260830162354 25 213 0.0 6.4 0.00 0.00 0.00 60 1013.7
20260830162253 25 204 6.4 6.4 0.00 0.00 0.00 60 1013.7
20260830162154 25 196 0.0 6.4 0.00 0.00 0.00 60 1013.8
20260830162054 25 217 1.6 6.4 0.00 0.00 0.00 60 1013.8
20260830161954 25 203 0.0 9.7 0.00 0.00 0.00 60 1014.1
20260830161855 25 200 0.0 12.9 0.00 0.00 0.00 60 1013.9
20260830161754 25 220 3.2 12.9 0.00 0.00 0.00 60 1013.7
20260830161654 25 206 0.0 12.9 0.00 0.00 0.00 60 1013.8
20260830161555 25 224 4.8 12.9 0.00 0.00 0.00 60 1014.0
20260830161545 25 209 1.6 12.9 0.00 0.00 0.00 59 1013.8
20260830161536 25 231 3.2 12.9 0.00 0.00 0.00 59 1014.0
20260830161520 25 220 4.8 12.9 0.00 0.00 0.00 59 1013.8
20260830161503 25 209 1.6 12.9 0.00 0.00 0.00 59 1013.8
20260830161154 25 210 3.2 12.9 0.00 0.00 0.00 59 1014.0
20260830161054 25 199 1.6 12.9 0.00 0.00 0.00 59 1013.8
20260830160954 25 218 6.4 12.9 0.00 0.00 0.00 59 1013.8
20260830160854 25 206 6.4 12.9 0.00 0.00 0.00 59 1014.2
20260830160755 25 218 1.6 12.9 0.00 0.00 0.00 59 1013.9
20260830160655 25 198 0.0 12.9 0.00 0.00 0.00 59 1014.0
20260830160555 26 210 3.2 12.9 0.00 0.00 0.00 59 1014.0
20260830160454 26 192 0.0 12.9 0.00 0.00 0.00 59 1013.8
20260830160354 26 191 0.0 12.9 0.00 0.00 0.00 59 1014.0
20260830160255 26 196 0.0 12.9 0.00 0.00 0.00 58 1014.0
20260830160155 26 232 8.0 16.1 0.00 0.00 0.00 59 1014.0
20260830160055 26 290 6.4 17.7 0.00 0.00 0.00 58 1014.0
20260830155954 26 214 6.4 17.7 0.00 0.00 0.00 58 1014.0
20260830155855 26 234 6.4 17.7 0.00 0.00 0.00 58 1014.1
20260830155754 26 172 0.0 17.7 0.00 0.00 0.00 58 1013.9
20260830155654 26 188 1.6 17.7 0.00 0.00 0.00 58 1014.0
20260830155554 26 204 3.2 17.7 0.00 0.00 0.00 58 1014.0
20260830155542 25 200 1.6 17.7 0.00 0.00 0.00 58 1014.1
20260830155521 25 211 6.4 17.7 0.00 0.00 0.00 58 1014.2
20260830155504 25 200 1.6 17.7 0.00 0.00 0.00 58 1014.1
20260830155155 25 226 3.2 12.9 0.00 0.00 0.00 58 1014.1
20260830155053 25 177 1.6 12.9 0.00 0.00 0.00 59 1014.0
20260830154955 25 201 1.6 12.9 0.00 0.00 0.00 59 1013.8
20260830154854 25 208 3.2 12.9 0.00 0.00 0.00 59 1014.0
20260830154755 25 201 0.0 12.9 0.00 0.00 0.00 59 1014.0
20260830154729 25 236 1.6 12.9 0.00 0.00 0.00 59 1014.0
20260830154714 25 222 6.4 12.9 0.00 0.00 0.00 59 1014.0
20260830154355 25 205 3.2 9.7 0.00 0.00 0.00 59 1014.2
20260830154331 25 246 6.4 9.7 0.00 0.00 0.00 59 1014.1
20260830154315 25 198 0.0 9.7 0.00 0.00 0.00 59 1014.2
20260830154259 25 230 4.8 9.7 0.00 0.00 0.00 59 1014.0
20260830154022 25 198 0.0 9.7 0.00 0.00 0.00 59 1014.1
20260830153755 25 203 0.0 9.7 0.00 0.00 0.00 59 1014.0
20260830153654 25 196 3.2 9.7 0.00 0.00 0.00 58 1014.0
20260830153554 25 231 3.2 9.7 0.00 0.00 0.00 58 1013.9
20260830153455 26 193 4.8 9.7 0.00 0.00 0.00 58 1014.0
20260830153354 26 201 0.0 9.7 0.00 0.00 0.00 59 1014.1
20260830153254 26 189 1.6 9.7 0.00 0.00 0.00 58 1013.9
20260830153154 26 202 4.8 9.7 0.00 0.00 0.00 58 1014.1
20260830153054 26 198 0.0 9.7 0.00 0.00 0.00 57 1014.2
20260830152954 26 178 1.6 9.7 0.00 0.00 0.00 57 1013.7
20260830152854 26 212 0.0 9.7 0.00 0.00 0.00 57 1014.0
20260830152808 26 179 1.6 9.7 0.00 0.00 0.00 57 1013.9
20260830152654 26 195 0.0 9.7 0.00 0.00 0.00 57 1014.0
20260830152555 26 204 1.6 9.7 0.00 0.00 0.00 57 1014.1
20260830152455 26 182 0.0 12.9 0.00 0.00 0.00 57 1014.0
20260830152354 26 197 0.0 12.9 0.00 0.00 0.00 57 1014.3
20260830152254 26 223 3.2 12.9 0.00 0.00 0.00 57 1014.2
20260830152154 26 156 0.0 12.9 0.00 0.00 0.00 57 1014.1
20260830152055 26 193 0.0 12.9 0.00 0.00 0.00 58 1014.1
20260830151954 26 206 0.0 12.9 0.00 0.00 0.00 57 1014.3
20260830151854 26 209 0.0 12.9 0.00 0.00 0.00 57 1014.0
20260830151832 26 194 0.0 12.9 0.00 0.00 0.00 57 1014.0
20260830151814 26 196 0.0 12.9 0.00 0.00 0.00 57 1014.0
20260830151454 26 191 0.0 12.9 0.00 0.00 0.00 56 1014.0
20260830151354 26 186 0.0 12.9 0.00 0.00 0.00 56 1014.2
20260830151255 26 194 0.0 12.9 0.00 0.00 0.00 56 1014.1
20260830151155 26 317 6.4 12.9 0.00 0.00 0.00 56 1014.0
20260830151142 26 219 3.2 12.9 0.00 0.00 0.00 56 1014.3
20260830151132 26 204 0.0 12.9 0.00 0.00 0.00 56 1014.2
20260830151115 26 226 3.2 12.9 0.00 0.00 0.00 56 1014.1
20260830151059 26 236 4.8 12.9 0.00 0.00 0.00 56 1014.3
20260830151041 26 219 3.2 12.9 0.00 0.00 0.00 56 1014.3
20260830150814 26 206 1.6 12.9 0.00 0.00 0.00 56 1014.5
20260830150456 26 207 9.7 12.9 0.00 0.00 0.00 55 1014.0
20260830150439 26 185 3.2 11.3 0.00 0.00 0.00 56 1014.2
20260830150423 26 218 4.8 11.3 0.00 0.00 0.00 56 1013.9
20260830150410 26 204 4.8 17.7 0.00 0.00 0.00 56 1013.9
20260830150054 26 198 0.0 17.7 0.00 0.00 0.00 56 1014.0
20260830150030 26 248 3.2 17.7 0.00 0.00 0.00 56 1014.2
20260830150014 26 227 3.2 17.7 0.00 0.00 0.00 56 1014.2
20260830145738 26 224 8.0 17.7 0.00 0.00 0.00 55 1014.2
20260830145655 26 211 3.2 17.7 0.00 0.00 0.00 56 1014.2
20260830145443 26 210 3.2 17.7 0.00 0.00 0.00 56 1014.2
20260830145343 26 234 3.2 17.7 0.00 0.00 0.00 56 1014.2
20260830145307 26 198 1.6 12.9 0.00 0.00 0.00 56 1014.2
20260830145251 26 185 1.6 17.7 0.00 0.00 0.00 57 1014.2
20260830144931 26 185 3.2 17.7 0.00 0.00 0.00 57 1014.2
20260830144830 26 160 1.6 17.7 0.00 0.00 0.00 56 1014.2
20260830144730 26 194 0.0 17.7 0.00 0.00 0.00 57 1014.3
20260830144636 26 204 1.6 17.7 0.00 0.00 0.00 56 1014.2
20260830144623 26 201 0.0 17.7 0.00 0.00 0.00 57 1014.1
20260830144432 26 211 3.2 17.7 0.00 0.00 0.00 56 1014.5
20260830144329 26 210 3.2 17.7 0.00 0.00 0.00 56 1014.5
20260830144230 26 235 6.4 17.7 0.00 0.00 0.00 56 1014.7
20260830144130 26 205 4.8 17.7 0.00 0.00 0.00 56 1014.5
20260830144030 26 239 6.4 17.7 0.00 0.00 0.00 55 1014.5
20260830143931 26 249 14.5 16.1 0.00 0.00 0.00 55 1014.5
20260830143833 26 214 9.7 14.5 0.00 0.00 0.00 56 1014.3
20260830143807 26 213 8.0 14.5 0.00 0.00 0.00 55 1014.2
20260830143751 26 210 3.2 14.5 0.00 0.00 0.00 56 1014.5
20260830143430 26 215 3.2 14.5 0.00 0.00 0.00 56 1014.6
20260830143330 26 91 6.4 14.5 0.00 0.00 0.00 55 1014.3
20260830143230 26 212 6.4 9.7 0.00 0.00 0.00 55 1014.5
20260830143130 26 180 0.0 16.1 0.00 0.00 0.00 55 1014.5
20260830143108 26 201 0.0 16.1 0.00 0.00 0.00 55 1014.5
20260830143051 26 188 0.0 16.1 0.00 0.00 0.00 55 1014.6
20260830143035 26 196 0.0 24.1 0.00 0.00 0.00 55 1014.3
20260830142806 26 204 0.0 24.1 0.00 0.00 0.00 55 1014.5
20260830142751 26 197 1.6 24.1 0.00 0.00 0.00 55 1014.3
20260830142430 26 237 4.8 24.1 0.00 0.00 0.00 55 1014.5
20260830142331 26 198 0.0 24.1 0.00 0.00 0.00 54 1014.6
20260830142306 26 220 6.4 24.1 0.00 0.00 0.00 54 1014.3
20260830142249 26 255 1.6 24.1 0.00 0.00 0.00 55 1014.5
20260830141930 26 222 19.3 24.1 0.00 0.00 0.00 54 1014.1
20260830141914 26 261 11.3 17.7 0.00 0.00 0.00 54 1014.3
20260830141850 26 217 1.6 17.7 0.00 0.00 0.00 54 1014.3
20260830141530 26 216 3.2 17.7 0.00 0.00 0.00 54 1014.3
20260830141430 26 208 0.0 17.7 0.00 0.00 0.00 54 1014.6
20260830141331 26 245 8.0 17.7 0.00 0.00 0.00 54 1014.5
20260830141232 26 203 0.0 17.7 0.00 0.00 0.00 54 1014.5
20260830141207 27 102 1.6 17.7 0.00 0.00 0.00 54 1014.2
20260830141151 27 73 4.8 17.7 0.00 0.00 0.00 54 1014.7
20260830140833 27 200 0.0 11.3 0.00 0.00 0.00 54 1014.3
20260830140809 27 248 6.4 11.3 0.00 0.00 0.00 53 1014.6
20260830140740 27 248 1.6 11.3 0.00 0.00 0.00 55 1014.5
20260830140725 27 203 0.0 11.3 0.00 0.00 0.00 56 1014.5
20260830140450 27 203 0.0 11.3 0.00 0.00 0.00 56 1014.6
20260830140427 27 204 0.0 11.3 0.00 0.00 0.00 55 1014.5
20260830140150 27 227 4.8 11.3 0.00 0.00 0.00 54 1014.7
20260830135831 27 256 6.4 20.9 0.00 0.00 0.00 54 1014.7
20260830135806 27 217 0.0 20.9 0.00 0.00 0.00 55 1014.5
20260830135750 27 202 0.0 20.9 0.00 0.00 0.00 54 1014.3
20260830135431 27 208 0.0 20.9 0.00 0.00 0.00 54 1014.5
20260830135414 26 201 0.0 20.9 0.00 0.00 0.00 54 1014.2
20260830135352 26 189 0.0 20.9 0.00 0.00 0.00 54 1014.5
20260830135031 26 233 14.5 25.7 0.00 0.00 0.00 53 1014.3
20260830134829 26 246 12.9 25.7 0.00 0.00 0.00 54 1014.5
20260830134731 26 196 3.2 25.7 0.00 0.00 0.00 54 1014.6
20260830134630 26 207 4.8 25.7 0.00 0.00 0.00 54 1014.6
20260830134607 26 209 3.2 25.7 0.00 0.00 0.00 54 1014.5
20260830134550 26 166 1.6 25.7 0.00 0.00 0.00 54 1014.5
20260830134230 26 292 6.4 14.5 0.00 0.00 0.00 54 1014.2
20260830134130 26 173 1.6 14.5 0.00 0.00 0.00 54 1014.5
20260830134108 26 264 9.7 14.5 0.00 0.00 0.00 54 1014.5
20260830134052 26 180 8.0 14.5 0.00 0.00 0.00 53 1014.2
20260830133729 26 187 1.6 12.9 0.00 0.00 0.00 54 1014.3
20260830133630 26 206 0.0 20.9 0.00 0.00 0.00 54 1014.5
20260830133529 26 234 6.4 20.9 0.00 0.00 0.00 54 1014.6
20260830133430 26 205 4.8 20.9 0.00 0.00 0.00 53 1014.5
20260830133329 26 202 0.0 20.9 0.00 0.00 0.00 54 1014.5
20260830133229 26 230 1.6 20.9 0.00 0.00 0.00 55 1014.3
20260830133129 26 212 1.6 22.5 0.00 0.00 0.00 54 1014.6
20260830133029 26 198 3.2 22.5 0.00 0.00 0.00 54 1014.6
20260830132930 26 237 1.6 22.5 0.00 0.00 0.00 55 1014.5
20260830132831 27 183 6.4 22.5 0.00 0.00 0.00 54 1014.7
20260830132806 27 214 12.9 22.5 0.00 0.00 0.00 54 1014.6
20260830132750 27 212 1.6 22.5 0.00 0.00 0.00 55 1014.7
20260830132429 26 216 1.6 22.5 0.00 0.00 0.00 55 1014.7
20260830132329 26 205 1.6 22.5 0.00 0.00 0.00 54 1014.7
20260830132230 26 240 17.7 22.5 0.00 0.00 0.00 54 1014.6
20260830132129 26 229 6.4 22.5 0.00 0.00 0.00 54 1014.6
20260830132107 27 243 6.4 22.5 0.00 0.00 0.00 53 1014.5
20260830132050 27 266 16.1 22.5 0.00 0.00 0.00 53 1014.6
20260830131806 27 234 11.3 22.5 0.00 0.00 0.00 54 1014.5
20260830131749 27 217 9.7 22.5 0.00 0.00 0.00 53 1014.6
20260830131429 27 205 1.6 17.7 0.00 0.00 0.00 53 1014.5
20260830131412 27 236 8.0 17.7 0.00 0.00 0.00 53 1014.3
20260830131350 27 247 14.5 17.7 0.00 0.00 0.00 53 1014.6
20260830131057 27 217 3.2 12.9 0.00 0.00 0.00 52 1015.0
20260830131051 27 203 0.0 12.9 0.00 0.00 0.00 52 1015.0
20260830131044 27 184 1.6 12.9 0.00 0.00 0.00 53 1014.6
20260830131027 27 174 0.0 12.9 0.00 0.00 0.00 53 1014.6
20260830131011 27 209 3.2 12.9 0.00 0.00 0.00 53 1014.6
20260830130737 27 208 4.8 12.9 0.00 0.00 0.00 53 1014.6
20260830130721 27 276 1.6 12.9 0.00 0.00 0.00 52 1014.5
20260830130705 27 234 3.2 12.9 0.00 0.00 0.00 53 1014.8
20260830130649 27 235 3.2 12.9 0.00 0.00 0.00 53 1014.8
20260830130634 27 212 8.0 14.5 0.00 0.00 0.00 52 1014.6
20260830130610 27 206 1.6 14.5 0.00 0.00 0.00 53 1014.6
20260830130332 27 199 4.8 14.5 0.00 0.00 0.00 52 1014.5
20260830125825 27 234 3.2 14.5 0.00 0.00 0.00 52 1014.7
20260830125810 27 203 0.0 14.5 0.00 0.00 0.00 53 1014.5
20260830125754 27 200 0.0 14.5 0.00 0.00 0.00 52 1014.6
20260830125739 27 204 3.2 11.3 0.00 0.00 0.00 52 1014.7
20260830125456 27 206 1.6 11.3 0.00 0.00 0.00 52 1014.7
20260830125440 27 235 0.0 11.3 0.00 0.00 0.00 53 1015.0
20260830125425 27 165 1.6 11.3 0.00 0.00 0.00 52 1014.7
20260830125408 27 209 1.6 11.3 0.00 0.00 0.00 53 1014.5
20260830124918 27 215 4.8 12.9 0.00 0.00 0.00 53 1014.7
20260830124853 27 207 0.0 14.5 0.00 0.00 0.00 54 1014.6
20260830124835 27 194 0.0 14.5 0.00 0.00 0.00 53 1014.6
20260830124558 27 201 0.0 20.9 0.00 0.00 0.00 52 1014.8
20260830124536 27 216 3.2 24.1 0.00 0.00 0.00 52 1014.7
20260830124520 27 194 3.2 24.1 0.00 0.00 0.00 53 1014.7
20260830124504 27 182 3.2 24.1 0.00 0.00 0.00 53 1014.7
20260830124446 27 198 0.0 24.1 0.00 0.00 0.00 54 1014.8
20260830124430 27 239 8.0 24.1 0.00 0.00 0.00 53 1014.8
20260830124200 27 194 8.0 24.1 0.00 0.00 0.00 53 1014.6
20260830123923 27 215 0.0 24.1 0.00 0.00 0.00 53 1014.9
20260830123908 27 222 3.2 24.1 0.00 0.00 0.00 52 1014.5
20260830123853 27 238 9.7 24.1 0.00 0.00 0.00 52 1014.8
20260830123625 27 169 1.6 16.1 0.00 0.00 0.00 52 1014.6
20260830123609 27 202 1.6 12.9 0.00 0.00 0.00 52 1014.7
20260830123334 27 239 1.6 12.9 0.00 0.00 0.00 53 1014.7
20260830123317 27 211 4.8 12.9 0.00 0.00 0.00 52 1014.9
20260830123257 27 203 0.0 12.9 0.00 0.00 0.00 52 1015.0
20260830123031 27 219 3.2 12.9 0.00 0.00 0.00 53 1014.9
20260830123015 27 247 6.4 12.9 0.00 0.00 0.00 52 1014.8
20260830122958 27 213 1.6 12.9 0.00 0.00 0.00 52 1015.0
20260830122941 27 242 3.2 12.9 0.00 0.00 0.00 52 1014.8
20260830122714 27 196 0.0 12.9 0.00 0.00 0.00 51 1014.9
20260830122437 27 251 6.4 12.9 0.00 0.00 0.00 52 1014.9
20260830122421 27 201 3.2 12.9 0.00 0.00 0.00 52 1015.0
20260830121626 27 207 1.6 12.9 0.00 0.00 0.00 52 1015.0
20260830121525 27 203 1.6 12.9 0.00 0.00 0.00 52 1014.9
20260830121426 27 196 6.4 12.9 0.00 0.00 0.00 52 1015.1
20260830121325 27 220 6.4 12.9 0.00 0.00 0.00 52 1015.0
20260830121225 27 182 3.2 9.7 0.00 0.00 0.00 53 1015.0
20260830121127 27 232 3.2 9.7 0.00 0.00 0.00 54 1014.9
20260830121026 27 200 1.6 9.7 0.00 0.00 0.00 55 1015.0
20260830120926 27 101 1.6 9.7 0.00 0.00 0.00 56 1015.2
20260830120910 27 227 6.4 9.7 0.00 0.00 0.00 55 1015.0
20260830120845 27 213 4.8 9.7 0.00 0.00 0.00 53 1015.0
20260830120547 27 199 0.0 14.5 0.00 0.00 0.00 54 1014.7
20260830120540 27 185 1.6 14.5 0.00 0.00 0.00 53 1014.9
20260830120523 27 213 6.4 14.5 0.00 0.00 0.00 51 1014.9
20260830120507 27 202 0.0 14.5 0.00 0.00 0.00 53 1015.1
20260830120450 27 199 0.0 14.5 0.00 0.00 0.00 54 1014.7
20260830120126 27 202 0.0 14.5 0.00 0.00 0.00 55 1014.9
20260830120026 27 196 0.0 14.5 0.00 0.00 0.00 54 1014.9
20260830115926 27 204 1.6 14.5 0.00 0.00 0.00 53 1015.0
20260830115824 27 139 0.0 14.5 0.00 0.00 0.00 55 1015.0
20260830115725 27 202 0.0 14.5 0.00 0.00 0.00 53 1015.0
20260830115703 27 246 9.7 14.5 0.00 0.00 0.00 52 1015.0
20260830115647 27 187 9.7 12.9 0.00 0.00 0.00 53 1014.8
20260830115630 26 199 0.0 9.7 0.00 0.00 0.00 56 1014.9
20260830115615 26 196 1.6 11.3 0.00 0.00 0.00 55 1014.9
20260830115346 26 191 3.2 11.3 0.00 0.00 0.00 54 1014.9
20260830115024 27 194 4.8 14.5 0.00 0.00 0.00 53 1014.8
20260830114926 27 235 6.4 14.5 0.00 0.00 0.00 53 1015.3
20260830114826 27 205 1.6 20.9 0.00 0.00 0.00 55 1015.1
20260830114727 27 206 0.0 20.9 0.00 0.00 0.00 54 1014.8
20260830114625 27 219 3.2 22.5 0.00 0.00 0.00 52 1015.1
20260830114525 27 200 1.6 22.5 0.00 0.00 0.00 53 1015.0
20260830114426 27 239 3.2 22.5 0.00 0.00 0.00 53 1015.0
20260830114409 27 218 3.2 22.5 0.00 0.00 0.00 52 1015.0
20260830114346 27 245 6.4 22.5 0.00 0.00 0.00 53 1015.1
20260830114025 26 212 1.6 22.5 0.00 0.00 0.00 54 1015.1
20260830113925 26 216 8.0 22.5 0.00 0.00 0.00 53 1015.1
20260830113826 26 224 4.8 22.5 0.00 0.00 0.00 53 1015.1
20260830113725 27 182 6.4 22.5 0.00 0.00 0.00 53 1015.3
20260830113704 27 189 0.0 14.5 0.00 0.00 0.00 52 1015.1
20260830113647 27 202 1.6 14.5 0.00 0.00 0.00 52 1015.1
20260830113326 27 222 8.0 14.5 0.00 0.00 0.00 52 1014.9
20260830113225 27 191 0.0 14.5 0.00 0.00 0.00 53 1015.2
20260830113126 27 192 0.0 14.5 0.00 0.00 0.00 54 1015.1
20260830113033 27 195 1.6 14.5 0.00 0.00 0.00 53 1015.1
20260830113018 27 215 1.6 14.5 0.00 0.00 0.00 52 1015.0
20260830113001 27 210 0.0 14.5 0.00 0.00 0.00 53 1015.1
20260830112732 27 214 6.4 14.5 0.00 0.00 0.00 52 1015.2
20260830112626 27 219 1.6 12.9 0.00 0.00 0.00 52 1015.0
20260830112525 27 215 1.6 12.9 0.00 0.00 0.00 52 1015.3
20260830112426 27 236 1.6 12.9 0.00 0.00 0.00 54 1015.3
20260830112325 27 195 1.6 12.9 0.00 0.00 0.00 56 1015.1
20260830112226 27 199 6.4 12.9 0.00 0.00 0.00 53 1015.1
20260830112125 27 216 4.8 12.9 0.00 0.00 0.00 53 1015.4
20260830112026 27 208 0.0 12.9 0.00 0.00 0.00 53 1015.5
20260830112010 27 247 1.6 12.9 0.00 0.00 0.00 52 1015.4
20260830111954 27 272 3.2 4.8 0.00 0.00 0.00 52 1015.2
20260830111725 27 210 1.6 4.8 0.00 0.00 0.00 52 1015.3
20260830111625 27 185 0.0 12.9 0.00 0.00 0.00 55 1015.5
20260830111526 27 186 0.0 12.9 0.00 0.00 0.00 54 1015.3
20260830111427 27 206 1.6 12.9 0.00 0.00 0.00 54 1015.4
20260830111411 27 200 1.6 12.9 0.00 0.00 0.00 53 1015.4
20260830111347 27 205 1.6 12.9 0.00 0.00 0.00 53 1015.2
20260830111042 27 259 9.7 25.7 0.00 0.00 0.00 54 1015.8
20260830111035 27 218 0.0 12.9 0.00 0.00 0.00 54 1015.4
20260830111019 27 218 1.6 12.9 0.00 0.00 0.00 55 1015.3
20260830111003 26 199 0.0 12.9 0.00 0.00 0.00 56 1015.5
20260830110937 26 210 1.6 12.9 0.00 0.00 0.00 56 1015.5
20260830110921 26 214 6.4 14.5 0.00 0.00 0.00 55 1015.3
20260830110906 26 197 3.2 14.5 0.00 0.00 0.00 55 1015.1
20260830110850 26 211 1.6 14.5 0.00 0.00 0.00 55 1015.3
20260830110833 26 232 8.0 16.1 0.00 0.00 0.00 55 1015.5
20260830110606 27 261 3.2 16.1 0.00 0.00 0.00 54 1015.6
20260830110549 27 225 6.4 16.1 0.00 0.00 0.00 53 1015.5
20260830110533 27 202 0.0 16.1 0.00 0.00 0.00 55 1015.5
20260830110516 27 205 1.6 16.1 0.00 0.00 0.00 53 1015.4
20260830110500 26 215 4.8 16.1 0.00 0.00 0.00 54 1015.5
20260830110435 26 238 1.6 16.1 0.00 0.00 0.00 55 1015.6
20260830110419 26 248 8.0 16.1 0.00 0.00 0.00 54 1015.4
20260830110402 26 203 1.6 16.1 0.00 0.00 0.00 54 1015.4
20260830110126 27 219 4.8 16.1 0.00 0.00 0.00 53 1015.6
20260830105900 27 264 1.6 16.1 0.00 0.00 0.00 53 1015.3
20260830105623 26 201 0.0 16.1 0.00 0.00 0.00 54 1015.5
20260830105117 27 204 9.7 16.1 0.00 0.00 0.00 53 1015.6
20260830105100 27 213 6.4 12.9 0.00 0.00 0.00 53 1015.6
20260830104824 27 204 0.0 12.9 0.00 0.00 0.00 55 1015.4
20260830104807 27 209 0.0 12.9 0.00 0.00 0.00 55 1015.5
20260830104744 27 203 0.0 17.7 0.00 0.00 0.00 56 1015.7
20260830104726 26 200 0.0 20.9 0.00 0.00 0.00 56 1015.7
20260830104709 26 198 0.0 25.7 0.00 0.00 0.00 56 1015.5
20260830104654 26 193 1.6 25.7 0.00 0.00 0.00 57 1015.5
20260830104204 26 210 1.6 25.7 0.00 0.00 0.00 56 1015.5
20260830104148 26 223 9.7 25.7 0.00 0.00 0.00 54 1015.8
20260830104132 26 194 0.0 25.7 0.00 0.00 0.00 56 1015.8
20260830104116 26 253 1.6 25.7 0.00 0.00 0.00 55 1015.6
20260830104100 27 257 12.9 25.7 0.00 0.00 0.00 55 1015.8
20260830104042 27 259 9.7 25.7 0.00 0.00 0.00 54 1015.8
20260830103556 27 208 0.0 12.9 0.00 0.00 0.00 56 1015.9
20260830102846 27 203 0.0 9.7 0.00 0.00 0.00 55 1015.8
20260830102529 27 205 0.0 12.9 0.00 0.00 0.00 58 1015.9
20260830102525 27 190 1.6 12.9 0.00 0.00 0.00 55 1015.9
20260830102509 27 204 1.6 12.9 0.00 0.00 0.00 55 1015.8
20260830102454 27 173 0.0 12.9 0.00 0.00 0.00 56 1015.9
20260830102436 27 205 0.0 12.9 0.00 0.00 0.00 58 1015.9
20260830102157 27 211 4.8 12.9 0.00 0.00 0.00 57 1015.8
20260830102141 26 205 0.0 12.9 0.00 0.00 0.00 56 1015.7
20260830102126 26 211 0.0 12.9 0.00 0.00 0.00 57 1015.8
20260830101846 26 230 0.0 12.9 0.00 0.00 0.00 57 1015.9
20260830101526 26 183 0.0 11.3 0.00 0.00 0.00 56 1015.6
20260830101425 27 229 1.6 11.3 0.00 0.00 0.00 55 1015.8
20260830101326 27 205 6.4 11.3 0.00 0.00 0.00 55 1016.0
20260830101225 27 228 0.0 9.7 0.00 0.00 0.00 56 1015.6
20260830101127 27 204 0.0 12.9 0.00 0.00 0.00 56 1015.6
20260830101025 27 177 0.0 12.9 0.00 0.00 0.00 56 1015.7
20260830100924 27 192 0.0 12.9 0.00 0.00 0.00 55 1016.1
20260830100827 27 201 0.0 12.9 0.00 0.00 0.00 55 1016.0
20260830100801 27 198 0.0 12.9 0.00 0.00 0.00 56 1016.0
20260830100746 26 163 0.0 12.9 0.00 0.00 0.00 57 1015.9
20260830100730 26 205 0.0 12.9 0.00 0.00 0.00 56 1015.8
20260830100714 26 198 3.2 12.9 0.00 0.00 0.00 56 1015.8
20260830100225 27 243 6.4 12.9 0.00 0.00 0.00 56 1016.1
20260830100126 27 198 6.4 14.5 0.00 0.00 0.00 57 1015.9
20260830100026 27 199 0.0 16.1 0.00 0.00 0.00 57 1015.9
20260830095927 27 183 0.0 16.1 0.00 0.00 0.00 57 1016.0
20260830095825 27 226 0.0 16.1 0.00 0.00 0.00 57 1015.9
20260830095725 27 195 0.0 20.9 0.00 0.00 0.00 57 1016.1
20260830095701 26 201 0.0 20.9 0.00 0.00 0.00 57 1015.9
20260830095645 26 211 1.6 20.9 0.00 0.00 0.00 58 1016.0
20260830095326 26 191 0.0 20.9 0.00 0.00 0.00 58 1015.8
20260830095226 26 236 6.4 20.9 0.00 0.00 0.00 58 1016.0
20260830095124 26 247 9.7 20.9 0.00 0.00 0.00 58 1016.2
20260830095025 26 197 0.0 20.9 0.00 0.00 0.00 58 1016.0
20260830094927 26 191 3.2 20.9 0.00 0.00 0.00 58 1015.8
20260830094827 27 228 17.7 20.9 0.00 0.00 0.00 58 1016.0
20260830094725 27 239 6.4 12.9 0.00 0.00 0.00 56 1015.8
20260830094625 27 207 1.6 12.9 0.00 0.00 0.00 57 1016.2
20260830094603 26 199 0.0 12.9 0.00 0.00 0.00 57 1015.9
20260830094547 26 202 4.8 12.9 0.00 0.00 0.00 57 1016.1
20260830094226 26 203 1.6 11.3 0.00 0.00 0.00 60 1015.8
20260830094201 26 199 4.8 11.3 0.00 0.00 0.00 58 1015.9
20260830094145 26 210 1.6 11.3 0.00 0.00 0.00 57 1015.8
20260830093825 26 226 1.6 9.7 0.00 0.00 0.00 58 1015.8
20260830093725 26 219 4.8 9.7 0.00 0.00 0.00 57 1016.0
20260830093630 26 208 3.2 9.7 0.00 0.00 0.00 58 1016.0
20260830093537 27 218 3.2 4.8 0.00 0.00 0.00 59 1016.0
20260830093527 27 206 1.6 9.7 0.00 0.00 0.00 57 1015.7
20260830093510 27 191 1.6 9.7 0.00 0.00 0.00 58 1015.9
20260830093454 27 203 1.6 9.7 0.00 0.00 0.00 60 1015.8
20260830093436 27 218 3.2 4.8 0.00 0.00 0.00 59 1016.0
20260830093124 27 200 0.0 11.3 0.00 0.00 0.00 59 1016.0
20260830093104 27 205 0.0 11.3 0.00 0.00 0.00 60 1016.0
20260830093046 27 203 0.0 11.3 0.00 0.00 0.00 61 1016.1
20260830093029 27 172 0.0 11.3 0.00 0.00 0.00 61 1015.9
20260830092800 27 208 1.6 11.3 0.00 0.00 0.00 60 1016.0
20260830092744 27 211 1.6 11.3 0.00 0.00 0.00 59 1016.1
20260830092728 27 196 0.0 11.3 0.00 0.00 0.00 61 1016.0
20260830092712 27 198 0.0 11.3 0.00 0.00 0.00 60 1016.0
20260830092225 27 230 8.0 11.3 0.00 0.00 0.00 59 1016.0
20260830092125 27 202 0.0 6.4 0.00 0.00 0.00 61 1016.1
20260830092025 27 196 0.0 6.4 0.00 0.00 0.00 59 1016.2
20260830091925 27 229 0.0 12.9 0.00 0.00 0.00 59 1015.9
20260830091826 27 204 0.0 12.9 0.00 0.00 0.00 60 1016.2
20260830091726 27 203 0.0 12.9 0.00 0.00 0.00 59 1016.0
20260830091627 27 193 0.0 12.9 0.00 0.00 0.00 61 1016.1
20260830091525 27 200 0.0 12.9 0.00 0.00 0.00 61 1016.2
20260830091427 26 217 1.6 12.9 0.00 0.00 0.00 61 1016.1
20260830091326 26 185 1.6 12.9 0.00 0.00 0.00 62 1016.0
20260830091226 26 199 0.0 12.9 0.00 0.00 0.00 62 1016.2
20260830091125 26 203 0.0 12.9 0.00 0.00 0.00 61 1016.1
20260830091026 26 195 3.2 12.9 0.00 0.00 0.00 61 1016.1
20260830090927 27 207 1.6 11.3 0.00 0.00 0.00 61 1016.2
20260830090827 27 223 3.2 6.4 0.00 0.00 0.00 60 1016.4
20260830090726 27 186 0.0 6.4 0.00 0.00 0.00 61 1016.2
20260830090626 27 225 0.0 6.4 0.00 0.00 0.00 60 1016.2
20260830090526 26 201 0.0 6.4 0.00 0.00 0.00 61 1016.1
20260830090425 26 183 0.0 6.4 0.00 0.00 0.00 61 1016.2
20260830090325 26 215 4.8 9.7 0.00 0.00 0.00 60 1016.1
20260830090226 26 250 3.2 9.7 0.00 0.00 0.00 60 1016.1
20260830090126 26 196 0.0 12.9 0.00 0.00 0.00 62 1016.3
20260830090103 26 196 0.0 12.9 0.00 0.00 0.00 63 1016.2
20260830090047 26 215 3.2 12.9 0.00 0.00 0.00 63 1016.1
20260830085726 25 205 0.0 12.9 0.00 0.00 0.00 67 1016.1
20260830085626 25 216 3.2 12.9 0.00 0.00 0.00 65 1016.0
20260830085525 25 191 3.2 12.9 0.00 0.00 0.00 64 1016.3
20260830085426 25 239 3.2 12.9 0.00 0.00 0.00 66 1016.2
20260830085325 25 209 1.6 12.9 0.00 0.00 0.00 65 1016.0